Wetterdaten: Mittwoch, 07.08.2013
Datum Zeit Temp. Aussen +5cm Feuchte Auss Luftdruck Regen Sonnenschein Regendauer UV Solar Windben
07.08.2013 00:00 17,4 C 16,2 C 84 % 1014,8 hPa 0,0 l/m 0 min 0 min 0,0 UV-I 0 W/m 0,0 km/h (0 Bft)
07.08.2013 00:02 17,4 C 16,2 C 84 % 1014,8 hPa 0,0 l/m 0 min 0 min 0,0 UV-I 0 W/m 0,0 km/h (0 Bft)
07.08.2013 00:06 17,3 C 15,7 C 84 % 1014,8 hPa 0,0 l/m 0 min 0 min 0,0 UV-I 0 W/m 0,0 km/h (0 Bft)
07.08.2013 00:08 17,3 C 15,7 C 84 % 1014,7 hPa 0,0 l/m 0 min 0 min 0,0 UV-I 0 W/m 0,0 km/h (0 Bft)
07.08.2013 00:10 17,2 C 15,7 C 84 % 1014,7 hPa 0,0 l/m 0 min 0 min 0,0 UV-I 0 W/m 0,0 km/h (0 Bft)
07.08.2013 00:12 17,1 C 15,7 C 85 % 1014,7 hPa 0,0 l/m 0 min 0 min 0,0 UV-I 0 W/m 0,0 km/h (0 Bft)
07.08.2013 00:14 17,0 C 15,7 C 85 % 1014,8 hPa 0,0 l/m 0 min 0 min 0,0 UV-I 0 W/m 0,0 km/h (0 Bft)
07.08.2013 00:16 17,0 C 15,7 C 85 % 1014,8 hPa 0,0 l/m 0 min 0 min 0,0 UV-I 0 W/m 0,0 km/h (0 Bft)
07.08.2013 00:18 17,1 C 15,7 C 85 % 1014,9 hPa 0,0 l/m 0 min 0 min 0,0 UV-I 0 W/m 0,0 km/h (0 Bft)
07.08.2013 00:20 17,1 C 15,7 C 85 % 1014,9 hPa 0,0 l/m 0 min 0 min 0,0 UV-I 0 W/m 0,0 km/h (0 Bft)
07.08.2013 00:22 17,1 C 15,7 C 85 % 1014,9 hPa 0,0 l/m 0 min 0 min 0,0 UV-I 0 W/m 0,0 km/h (0 Bft)
07.08.2013 00:24 17,1 C 15,7 C 85 % 1014,9 hPa 0,0 l/m 0 min 0 min 0,0 UV-I 0 W/m 0,0 km/h (0 Bft)
07.08.2013 00:26 17,1 C 16,2 C 85 % 1014,7 hPa 0,0 l/m 0 min 0 min 0,0 UV-I 0 W/m 0,0 km/h (0 Bft)
07.08.2013 00:28 17,1 C 15,7 C 85 % 1014,6 hPa 0,0 l/m 0 min 0 min 0,0 UV-I 0 W/m 0,0 km/h (0 Bft)
07.08.2013 00:30 17,1 C 15,7 C 85 % 1014,6 hPa 0,0 l/m 0 min 0 min 0,0 UV-I 0 W/m 0,0 km/h (0 Bft)
07.08.2013 00:32 17,0 C 15,7 C 85 % 1014,6 hPa 0,0 l/m 0 min 0 min 0,0 UV-I 0 W/m 0,0 km/h (0 Bft)
07.08.2013 00:34 17,0 C 15,7 C 85 % 1014,6 hPa 0,0 l/m 0 min 0 min 0,0 UV-I 0 W/m 0,0 km/h (0 Bft)
07.08.2013 00:36 16,9 C 15,7 C 86 % 1014,5 hPa 0,0 l/m 0 min 0 min 0,0 UV-I 0 W/m 0,0 km/h (0 Bft)
07.08.2013 00:38 16,9 C 15,7 C 86 % 1014,5 hPa 0,0 l/m 0 min 0 min 0,0 UV-I 0 W/m 0,0 km/h (0 Bft)
07.08.2013 00:40 16,9 C 15,7 C 86 % 1014,5 hPa 0,0 l/m 0 min 0 min 0,0 UV-I 0 W/m 0,0 km/h (0 Bft)
07.08.2013 00:42 17,0 C 15,7 C 86 % 1014,5 hPa 0,0 l/m 0 min 0 min 0,0 UV-I 0 W/m 0,0 km/h (0 Bft)
07.08.2013 00:44 17,0 C 15,7 C 86 % 1014,5 hPa 0,0 l/m 0 min 0 min 0,0 UV-I 0 W/m 0,0 km/h (0 Bft)
07.08.2013 00:46 17,0 C 16,2 C 86 % 1014,5 hPa 0,0 l/m 0 min 0 min 0,0 UV-I 0 W/m 0,0 km/h (0 Bft)
07.08.2013 00:48 17,1 C 16,2 C 86 % 1014,5 hPa 0,0 l/m 0 min 0 min 0,0 UV-I 0 W/m 0,0 km/h (0 Bft)
07.08.2013 00:50 17,1 C 16,2 C 86 % 1014,5 hPa 0,0 l/m 0 min 0 min 0,0 UV-I 0 W/m 0,0 km/h (0 Bft)
07.08.2013 00:52 17,1 C 16,2 C 86 % 1014,4 hPa 0,0 l/m 0 min 0 min 0,0 UV-I 0 W/m 0,0 km/h (0 Bft)
07.08.2013 00:54 17,1 C 16,2 C 86 % 1014,4 hPa 0,0 l/m 0 min 0 min 0,0 UV-I 0 W/m 0,0 km/h (0 Bft)
07.08.2013 00:56 17,1 C 16,2 C 86 % 1014,5 hPa 0,0 l/m 0 min 0 min 0,0 UV-I 0 W/m 0,0 km/h (0 Bft)
07.08.2013 00:58 17,0 C 15,7 C 86 % 1014,5 hPa 0,0 l/m 0 min 0 min 0,0 UV-I 0 W/m 0,0 km/h (0 Bft)
07.08.2013 01:00 16,9 C 15,7 C 86 % 1014,4 hPa 0,0 l/m 0 min 0 min 0,0 UV-I 0 W/m 0,0 km/h (0 Bft)
07.08.2013 01:02 16,9 C 15,7 C 86 % 1014,4 hPa 0,0 l/m 0 min 0 min 0,0 UV-I 0 W/m 0,0 km/h (0 Bft)
07.08.2013 01:06 16,9 C 15,7 C 86 % 1014,4 hPa 0,0 l/m 0 min 0 min 0,0 UV-I 0 W/m 0,0 km/h (0 Bft)
07.08.2013 01:08 16,9 C 15,7 C 86 % 1014,5 hPa 0,0 l/m 0 min 0 min 0,0 UV-I 0 W/m 0,0 km/h (0 Bft)
07.08.2013 01:10 16,9 C 15,7 C 86 % 1014,5 hPa 0,0 l/m 0 min 0 min 0,0 UV-I 0 W/m 0,0 km/h (0 Bft)
07.08.2013 01:12 16,8 C 15,7 C 87 % 1014,4 hPa 0,0 l/m 0 min 0 min 0,0 UV-I 0 W/m 0,0 km/h (0 Bft)
07.08.2013 01:14 16,8 C 15,7 C 86 % 1014,4 hPa 0,0 l/m 0 min 0 min 0,0 UV-I 0 W/m 0,0 km/h (0 Bft)
07.08.2013 01:16 16,8 C 15,7 C 87 % 1014,3 hPa 0,0 l/m 0 min 0 min 0,0 UV-I 0 W/m 0,0 km/h (0 Bft)
07.08.2013 01:18 16,7 C 15,7 C 87 % 1014,3 hPa 0,0 l/m 0 min 0 min 0,0 UV-I 0 W/m 0,0 km/h (0 Bft)
07.08.2013 01:20 16,6 C 15,1 C 87 % 1014,3 hPa 0,0 l/m 0 min 0 min 0,0 UV-I 0 W/m 0,0 km/h (0 Bft)
07.08.2013 01:22 16,5 C 15,1 C 87 % 1014,2 hPa 0,0 l/m 0 min 0 min 0,0 UV-I 0 W/m 0,0 km/h (0 Bft)
07.08.2013 01:24 16,4 C 15,1 C 87 % 1014,2 hPa 0,0 l/m 0 min 0 min 0,0 UV-I 0 W/m 0,0 km/h (0 Bft)
07.08.2013 01:26 16,4 C 15,1 C 87 % 1014,3 hPa 0,0 l/m 0 min 0 min 0,0 UV-I 0 W/m 0,0 km/h (0 Bft)
07.08.2013 01:28 16,4 C 15,1 C 88 % 1014,2 hPa 0,0 l/m 0 min 0 min 0,0 UV-I 0 W/m 0,0 km/h (0 Bft)
07.08.2013 01:30 16,4 C 15,1 C 88 % 1014,2 hPa 0,0 l/m 0 min 0 min 0,0 UV-I 0 W/m 0,0 km/h (0 Bft)
07.08.2013 01:32 16,4 C 15,1 C 88 % 1014,2 hPa 0,0 l/m 0 min 0 min 0,0 UV-I 0 W/m 0,0 km/h (0 Bft)
07.08.2013 01:34 16,4 C 15,1 C 88 % 1014,0 hPa 0,0 l/m 0 min 0 min 0,0 UV-I 0 W/m 0,0 km/h (0 Bft)
07.08.2013 01:36 16,4 C 15,1 C 88 % 1014,1 hPa 0,0 l/m 0 min 0 min 0,0 UV-I 0 W/m 0,0 km/h (0 Bft)
07.08.2013 01:38 16,5 C 15,1 C 88 % 1013,9 hPa 0,0 l/m 0 min 0 min 0,0 UV-I 0 W/m 0,0 km/h (0 Bft)
07.08.2013 01:40 16,6 C 15,7 C 88 % 1013,8 hPa 0,0 l/m 0 min 0 min 0,0 UV-I 0 W/m 0,0 km/h (0 Bft)
07.08.2013 01:42 16,6 C 15,7 C 88 % 1013,8 hPa 0,0 l/m 0 min 0 min 0,0 UV-I 0 W/m 0,0 km/h (0 Bft)
07.08.2013 01:44 16,7 C 15,7 C 88 % 1013,7 hPa 0,0 l/m 0 min 0 min 0,0 UV-I 0 W/m 0,0 km/h (0 Bft)
07.08.2013 01:46 16,7 C 15,7 C 88 % 1013,7 hPa 0,0 l/m 0 min 0 min 0,0 UV-I 0 W/m 0,0 km/h (0 Bft)
07.08.2013 01:48 16,8 C 15,7 C 88 % 1013,6 hPa 0,0 l/m 0 min 0 min 0,0 UV-I 0 W/m 0,0 km/h (0 Bft)
07.08.2013 01:50 16,7 C 15,7 C 87 % 1013,6 hPa 0,0 l/m 0 min 0 min 0,0 UV-I 0 W/m 0,0 km/h (0 Bft)
07.08.2013 01:52 16,7 C 15,7 C 87 % 1013,6 hPa 0,0 l/m 0 min 0 min 0,0 UV-I 0 W/m 0,0 km/h (0 Bft)
07.08.2013 01:54 16,7 C 15,7 C 87 % 1013,6 hPa 0,0 l/m 0 min 0 min 0,0 UV-I 0 W/m 0,0 km/h (0 Bft)
07.08.2013 01:56 16,6 C 15,7 C 88 % 1013,5 hPa 0,0 l/m 0 min 0 min 0,0 UV-I 0 W/m 0,0 km/h (0 Bft)
07.08.2013 01:58 16,6 C 15,1 C 88 % 1013,5 hPa 0,0 l/m 0 min 0 min 0,0 UV-I 0 W/m 0,0 km/h (0 Bft)
07.08.2013 02:00 16,5 C 15,1 C 88 % 1013,5 hPa 0,0 l/m 0 min 0 min 0,0 UV-I 0 W/m 0,0 km/h (0 Bft)
07.08.2013 02:02 16,4 C 15,1 C 88 % 1013,6 hPa 0,0 l/m 0 min 0 min 0,0 UV-I 0 W/m 0,0 km/h (0 Bft)
07.08.2013 02:06 16,3 C 15,1 C 88 % 1013,3 hPa 0,0 l/m 0 min 0 min 0,0 UV-I 0 W/m 0,0 km/h (0 Bft)
07.08.2013 02:08 16,2 C 14,6 C 88 % 1013,3 hPa 0,0 l/m 0 min 0 min 0,0 UV-I 0 W/m 0,0 km/h (0 Bft)
07.08.2013 02:10 16,1 C 14,6 C 89 % 1013,3 hPa 0,0 l/m 0 min 0 min 0,0 UV-I 0 W/m 0,0 km/h (0 Bft)
07.08.2013 02:12 16,1 C 14,6 C 89 % 1013,2 hPa 0,0 l/m 0 min 0 min 0,0 UV-I 0 W/m 0,0 km/h (0 Bft)
07.08.2013 02:14 15,9 C 14,6 C 89 % 1013,2 hPa 0,0 l/m 0 min 0 min 0,0 UV-I 0 W/m 0,0 km/h (0 Bft)
07.08.2013 02:16 15,9 C 14,6 C 89 % 1013,2 hPa 0,0 l/m 0 min 0 min 0,0 UV-I 0 W/m 0,0 km/h (0 Bft)
07.08.2013 02:18 15,8 C 14,6 C 90 % 1013,2 hPa 0,0 l/m 0 min 0 min 0,0 UV-I 0 W/m 0,0 km/h (0 Bft)
07.08.2013 02:20 15,8 C 14,6 C 90 % 1013,2 hPa 0,0 l/m 0 min 0 min 0,0 UV-I 0 W/m 0,0 km/h (0 Bft)
07.08.2013 02:22 15,8 C 14,6 C 90 % 1013,2 hPa 0,0 l/m 0 min 0 min 0,0 UV-I 0 W/m 0,0 km/h (0 Bft)
07.08.2013 02:24 15,8 C 14,6 C 90 % 1013,3 hPa 0,0 l/m 0 min 0 min 0,0 UV-I 0 W/m 0,0 km/h (0 Bft)
07.08.2013 02:26 15,7 C 14,6 C 90 % 1013,3 hPa 0,0 l/m 0 min 0 min 0,0 UV-I 0 W/m 0,0 km/h (0 Bft)
07.08.2013 02:28 15,7 C 14,6 C 90 % 1013,3 hPa 0,0 l/m 0 min 0 min 0,0 UV-I 0 W/m 0,0 km/h (0 Bft)
07.08.2013 02:30 15,7 C 14,6 C 90 % 1013,3 hPa 0,0 l/m 0 min 0 min 0,0 UV-I 0 W/m 0,0 km/h (0 Bft)
07.08.2013 02:32 15,7 C 14,0 C 91 % 1013,3 hPa 0,0 l/m 0 min 0 min 0,0 UV-I 0 W/m 0,0 km/h (0 Bft)
07.08.2013 02:34 15,7 C 14,0 C 91 % 1013,4 hPa 0,0 l/m 0 min 0 min 0,0 UV-I 0 W/m 0,0 km/h (0 Bft)
07.08.2013 02:36 15,6 C 14,0 C 91 % 1013,4 hPa 0,0 l/m 0 min 0 min 0,0 UV-I 0 W/m 0,0 km/h (0 Bft)
07.08.2013 02:38 15,6 C 14,0 C 91 % 1013,4 hPa 0,0 l/m 0 min 0 min 0,0 UV-I 0 W/m 0,0 km/h (0 Bft)
07.08.2013 02:40 15,6 C 14,0 C 91 % 1013,3 hPa 0,0 l/m 0 min 0 min 0,0 UV-I 0 W/m 0,0 km/h (0 Bft)
07.08.2013 02:42 15,6 C 14,0 C 91 % 1013,4 hPa 0,0 l/m 0 min 0 min 0,0 UV-I 0 W/m 0,0 km/h (0 Bft)
07.08.2013 02:44 15,6 C 14,0 C 91 % 1013,5 hPa 0,0 l/m 0 min 0 min 0,0 UV-I 0 W/m 0,0 km/h (0 Bft)
07.08.2013 02:46 15,6 C 14,0 C 91 % 1013,5 hPa 0,0 l/m 0 min 0 min 0,0 UV-I 0 W/m 0,0 km/h (0 Bft)
07.08.2013 02:48 15,6 C 14,0 C 91 % 1013,5 hPa 0,0 l/m 0 min 0 min 0,0 UV-I 0 W/m 0,0 km/h (0 Bft)
07.08.2013 02:50 15,6 C 14,0 C 91 % 1013,5 hPa 0,0 l/m 0 min 0 min 0,0 UV-I 0 W/m 0,0 km/h (0 Bft)
07.08.2013 02:52 15,6 C 14,0 C 91 % 1013,5 hPa 0,0 l/m 0 min 0 min 0,0 UV-I 0 W/m 0,0 km/h (0 Bft)
07.08.2013 02:54 15,6 C 14,0 C 91 % 1013,4 hPa 0,0 l/m 0 min 0 min 0,0 UV-I 0 W/m 0,0 km/h (0 Bft)
07.08.2013 02:56 15,5 C 14,0 C 91 % 1013,4 hPa 0,0 l/m 0 min 0 min 0,0 UV-I 0 W/m 0,0 km/h (0 Bft)
07.08.2013 02:58 15,4 C 14,0 C 91 % 1013,3 hPa 0,0 l/m 0 min 0 min 0,0 UV-I 0 W/m 0,0 km/h (0 Bft)
07.08.2013 03:00 15,4 C 14,0 C 91 % 1013,3 hPa 0,0 l/m 0 min 0 min 0,0 UV-I 0 W/m 0,0 km/h (0 Bft)
07.08.2013 03:02 15,4 C 14,0 C 92 % 1013,3 hPa 0,0 l/m 0 min 0 min 0,0 UV-I 0 W/m 0,0 km/h (0 Bft)
07.08.2013 03:06 15,4 C 14,0 C 92 % 1013,4 hPa 0,0 l/m 0 min 0 min 0,0 UV-I 0 W/m 0,0 km/h (0 Bft)
07.08.2013 03:08 15,4 C 14,0 C 92 % 1013,5 hPa 0,0 l/m 0 min 0 min 0,0 UV-I 0 W/m 0,0 km/h (0 Bft)
07.08.2013 03:10 15,4 C 14,0 C 92 % 1013,5 hPa 0,0 l/m 0 min 0 min 0,0 UV-I 0 W/m 0,0 km/h (0 Bft)
07.08.2013 03:12 15,5 C 14,6 C 92 % 1013,5 hPa 0,0 l/m 0 min 0 min 0,0 UV-I 0 W/m 0,0 km/h (0 Bft)
07.08.2013 03:14 15,6 C 14,6 C 92 % 1013,6 hPa 0,0 l/m 0 min 0 min 0,0 UV-I 0 W/m 0,0 km/h (0 Bft)
07.08.2013 03:16 15,6 C 14,6 C 91 % 1013,6 hPa 0,0 l/m 0 min 0 min 0,0 UV-I 0 W/m 0,0 km/h (0 Bft)
07.08.2013 03:18 15,6 C 14,6 C 91 % 1013,6 hPa 0,0 l/m 0 min 0 min 0,0 UV-I 0 W/m 0,0 km/h (0 Bft)
07.08.2013 03:20 15,6 C 14,6 C 91 % 1013,5 hPa 0,0 l/m 0 min 0 min 0,0 UV-I 0 W/m 0,0 km/h (0 Bft)
07.08.2013 03:22 15,7 C 14,6 C 91 % 1013,6 hPa 0,0 l/m 0 min 0 min 0,0 UV-I 0 W/m 0,0 km/h (0 Bft)
07.08.2013 03:24 15,7 C 14,6 C 91 % 1013,5 hPa 0,0 l/m 0 min 0 min 0,0 UV-I 0 W/m 0,0 km/h (0 Bft)
07.08.2013 03:26 15,7 C 14,6 C 91 % 1013,5 hPa 0,0 l/m 0 min 0 min 0,0 UV-I 0 W/m 0,0 km/h (0 Bft)
07.08.2013 03:28 15,7 C 14,6 C 91 % 1013,4 hPa 0,0 l/m 0 min 0 min 0,0 UV-I 0 W/m 0,0 km/h (0 Bft)
07.08.2013 03:30 15,7 C 14,6 C 91 % 1013,4 hPa 0,0 l/m 0 min 0 min 0,0 UV-I 0 W/m 0,0 km/h (0 Bft)
07.08.2013 03:32 15,6 C 14,6 C 91 % 1013,4 hPa 0,0 l/m 0 min 0 min 0,0 UV-I 0 W/m 0,0 km/h (0 Bft)
07.08.2013 03:34 15,6 C 14,6 C 91 % 1013,4 hPa 0,0 l/m 0 min 0 min 0,0 UV-I 0 W/m 0,0 km/h (0 Bft)
07.08.2013 03:36 15,6 C 14,6 C 91 % 1013,3 hPa 0,0 l/m 0 min 0 min 0,0 UV-I 0 W/m 0,0 km/h (0 Bft)
07.08.2013 03:38 15,5 C 14,6 C 91 % 1013,3 hPa 0,0 l/m 0 min 0 min 0,0 UV-I 0 W/m 0,0 km/h (0 Bft)
07.08.2013 03:40 15,4 C 14,6 C 91 % 1013,3 hPa 0,0 l/m 0 min 0 min 0,0 UV-I 0 W/m 0,0 km/h (0 Bft)
07.08.2013 03:42 15,4 C 14,6 C 91 % 1013,3 hPa 0,0 l/m 0 min 0 min 0,0 UV-I 0 W/m 0,0 km/h (0 Bft)
07.08.2013 03:44 15,3 C 14,0 C 91 % 1013,2 hPa 0,0 l/m 0 min 0 min 0,0 UV-I 0 W/m 0,0 km/h (0 Bft)
07.08.2013 03:46 15,3 C 14,0 C 91 % 1013,3 hPa 0,0 l/m 0 min 0 min 0,0 UV-I 0 W/m 0,0 km/h (0 Bft)
07.08.2013 03:48 15,3 C 14,0 C 91 % 1013,3 hPa 0,0 l/m 0 min 0 min 0,0 UV-I 0 W/m 0,0 km/h (0 Bft)
07.08.2013 03:50 15,2 C 14,0 C 91 % 1013,2 hPa 0,0 l/m 0 min 0 min 0,0 UV-I 0 W/m 0,0 km/h (0 Bft)
07.08.2013 03:52 15,2 C 14,0 C 91 % 1013,3 hPa 0,0 l/m 0 min 0 min 0,0 UV-I 0 W/m 0,0 km/h (0 Bft)
07.08.2013 03:54 15,1 C 14,0 C 92 % 1013,2 hPa 0,0 l/m 0 min 0 min 0,0 UV-I 0 W/m 0,0 km/h (0 Bft)
07.08.2013 03:56 15,1 C 14,0 C 92 % 1013,3 hPa 0,0 l/m 0 min 0 min 0,0 UV-I 0 W/m 0,0 km/h (0 Bft)
07.08.2013 03:58 15,1 C 14,0 C 92 % 1013,2 hPa 0,0 l/m 0 min 0 min 0,0 UV-I 0 W/m 0,0 km/h (0 Bft)
07.08.2013 04:00 15,1 C 14,0 C 92 % 1013,3 hPa 0,0 l/m 0 min 0 min 0,0 UV-I 0 W/m 0,0 km/h (0 Bft)
07.08.2013 04:02 15,1 C 14,0 C 92 % 1013,3 hPa 0,0 l/m 0 min 0 min 0,0 UV-I 0 W/m 0,0 km/h (0 Bft)
07.08.2013 04:06 15,2 C 14,0 C 93 % 1013,1 hPa 0,0 l/m 0 min 0 min 0,0 UV-I 0 W/m 0,0 km/h (0 Bft)
07.08.2013 04:08 15,2 C 14,0 C 93 % 1013,1 hPa 0,0 l/m 0 min 0 min 0,0 UV-I 0 W/m 0,0 km/h (0 Bft)
07.08.2013 04:10 15,3 C 14,0 C 93 % 1013,2 hPa 0,0 l/m 0 min 0 min 0,0 UV-I 0 W/m 0,0 km/h (0 Bft)
07.08.2013 04:12 15,3 C 14,0 C 93 % 1013,2 hPa 0,0 l/m 0 min 0 min 0,0 UV-I 0 W/m 0,0 km/h (0 Bft)
07.08.2013 04:14 15,4 C 14,0 C 93 % 1013,2 hPa 0,0 l/m 0 min 0 min 0,0 UV-I 0 W/m 0,0 km/h (0 Bft)
07.08.2013 04:16 15,5 C 14,0 C 93 % 1013,4 hPa 0,0 l/m 0 min 0 min 0,0 UV-I 0 W/m 0,0 km/h (0 Bft)
07.08.2013 04:18 15,6 C 14,0 C 93 % 1013,4 hPa 0,0 l/m 0 min 0 min 0,0 UV-I 0 W/m 0,0 km/h (0 Bft)
07.08.2013 04:20 15,6 C 14,0 C 93 % 1013,4 hPa 0,0 l/m 0 min 0 min 0,0 UV-I 0 W/m 0,0 km/h (0 Bft)
07.08.2013 04:22 15,7 C 14,0 C 93 % 1013,4 hPa 0,0 l/m 0 min 0 min 0,0 UV-I 0 W/m 2,6 km/h (1 Bft)
07.08.2013 04:24 15,7 C 14,6 C 93 % 1013,4 hPa 0,0 l/m 0 min 0 min 0,0 UV-I 0 W/m 0,0 km/h (0 Bft)
07.08.2013 04:26 15,8 C 14,6 C 93 % 1013,4 hPa 0,0 l/m 0 min 0 min 0,0 UV-I 0 W/m 0,0 km/h (0 Bft)
07.08.2013 04:28 15,8 C 14,0 C 93 % 1013,4 hPa 0,0 l/m 0 min 0 min 0,0 UV-I 0 W/m 0,0 km/h (0 Bft)
07.08.2013 04:30 15,8 C 14,0 C 92 % 1013,4 hPa 0,0 l/m 0 min 0 min 0,0 UV-I 0 W/m 0,0 km/h (0 Bft)
07.08.2013 04:32 15,8 C 14,0 C 92 % 1013,4 hPa 0,0 l/m 0 min 0 min 0,0 UV-I 0 W/m 0,0 km/h (0 Bft)
07.08.2013 04:34 15,8 C 14,0 C 92 % 1013,4 hPa 0,0 l/m 0 min 0 min 0,0 UV-I 0 W/m 0,0 km/h (0 Bft)
07.08.2013 04:36 15,8 C 14,6 C 92 % 1013,4 hPa 0,0 l/m 0 min 0 min 0,0 UV-I 0 W/m 0,0 km/h (0 Bft)
07.08.2013 04:38 15,8 C 14,6 C 92 % 1013,3 hPa 0,0 l/m 0 min 0 min 0,0 UV-I 0 W/m 0,0 km/h (0 Bft)
07.08.2013 04:40 15,8 C 14,6 C 92 % 1013,3 hPa 0,0 l/m 0 min 0 min 0,0 UV-I 0 W/m 0,0 km/h (0 Bft)
07.08.2013 04:42 15,7 C 14,6 C 92 % 1013,2 hPa 0,0 l/m 0 min 0 min 0,0 UV-I 0 W/m 0,0 km/h (0 Bft)
07.08.2013 04:44 15,6 C 14,0 C 91 % 1013,2 hPa 0,0 l/m 0 min 0 min 0,0 UV-I 0 W/m 0,0 km/h (0 Bft)
07.08.2013 04:46 15,4 C 14,0 C 91 % 1013,1 hPa 0,0 l/m 0 min 0 min 0,0 UV-I 0 W/m 0,0 km/h (0 Bft)
07.08.2013 04:48 15,3 C 14,0 C 91 % 1013,0 hPa 0,0 l/m 0 min 0 min 0,0 UV-I 0 W/m 0,0 km/h (0 Bft)
07.08.2013 04:50 15,3 C 14,0 C 91 % 1012,9 hPa 0,0 l/m 0 min 0 min 0,0 UV-I 0 W/m 0,0 km/h (0 Bft)
07.08.2013 04:52 15,2 C 14,6 C 91 % 1012,9 hPa 0,0 l/m 0 min 0 min 0,0 UV-I 0 W/m 0,0 km/h (0 Bft)
07.08.2013 04:54 15,2 C 14,6 C 92 % 1012,9 hPa 0,0 l/m 0 min 0 min 0,0 UV-I 0 W/m 0,0 km/h (0 Bft)
07.08.2013 04:56 15,2 C 14,6 C 92 % 1012,9 hPa 0,0 l/m 0 min 0 min 0,0 UV-I 0 W/m 0,0 km/h (0 Bft)
07.08.2013 04:58 15,2 C 14,6 C 92 % 1012,9 hPa 0,0 l/m 0 min 0 min 0,0 UV-I 0 W/m 0,0 km/h (0 Bft)
07.08.2013 05:00 15,2 C 14,6 C 92 % 1012,9 hPa 0,0 l/m 0 min 0 min 0,0 UV-I 0 W/m 0,0 km/h (0 Bft)
07.08.2013 05:02 15,2 C 14,6 C 92 % 1012,8 hPa 0,0 l/m 0 min 0 min 0,0 UV-I 0 W/m 0,0 km/h (0 Bft)
07.08.2013 05:06 15,2 C 14,0 C 92 % 1012,8 hPa 0,0 l/m 0 min 0 min 0,0 UV-I 0 W/m 0,0 km/h (0 Bft)
07.08.2013 05:08 15,2 C 14,0 C 93 % 1012,7 hPa 0,0 l/m 0 min 0 min 0,0 UV-I 0 W/m 0,0 km/h (0 Bft)
07.08.2013 05:10 15,2 C 14,6 C 93 % 1012,6 hPa 0,0 l/m 0 min 0 min 0,0 UV-I 0 W/m 0,0 km/h (0 Bft)
07.08.2013 05:12 15,2 C 14,6 C 93 % 1012,6 hPa 0,0 l/m 0 min 0 min 0,0 UV-I 0 W/m 0,0 km/h (0 Bft)
07.08.2013 05:14 15,3 C 14,6 C 93 % 1012,5 hPa 0,0 l/m 0 min 0 min 0,0 UV-I 0 W/m 0,0 km/h (0 Bft)
07.08.2013 05:16 15,3 C 14,6 C 93 % 1012,4 hPa 0,0 l/m 0 min 0 min 0,0 UV-I 0 W/m 0,0 km/h (0 Bft)
07.08.2013 05:18 15,3 C 14,6 C 93 % 1012,4 hPa 0,0 l/m 0 min 0 min 0,0 UV-I 0 W/m 0,0 km/h (0 Bft)
07.08.2013 05:20 15,2 C 14,6 C 93 % 1012,4 hPa 0,0 l/m 0 min 0 min 0,0 UV-I 0 W/m 0,0 km/h (0 Bft)
07.08.2013 05:22 15,2 C 14,6 C 93 % 1012,4 hPa 0,0 l/m 0 min 0 min 0,0 UV-I 0 W/m 0,0 km/h (0 Bft)
07.08.2013 05:24 15,1 C 14,0 C 93 % 1012,4 hPa 0,0 l/m 0 min 0 min 0,0 UV-I 0 W/m 0,0 km/h (0 Bft)
07.08.2013 05:26 15,1 C 14,0 C 93 % 1012,4 hPa 0,0 l/m 0 min 0 min 0,0 UV-I 0 W/m 0,0 km/h (0 Bft)
07.08.2013 05:28 15,0 C 14,0 C 93 % 1012,4 hPa 0,0 l/m 0 min 0 min 0,0 UV-I 0 W/m 0,0 km/h (0 Bft)
07.08.2013 05:30 14,9 C 14,0 C 93 % 1012,4 hPa 0,0 l/m 0 min 0 min 0,0 UV-I 0 W/m 0,0 km/h (0 Bft)
07.08.2013 05:32 14,9 C 13,4 C 93 % 1012,3 hPa 0,0 l/m 0 min 0 min 0,0 UV-I 0 W/m 0,0 km/h (0 Bft)
07.08.2013 05:34 14,8 C 13,4 C 93 % 1012,4 hPa 0,0 l/m 0 min 0 min 0,0 UV-I 0 W/m 0,0 km/h (0 Bft)
07.08.2013 05:36 14,8 C 13,4 C 93 % 1012,4 hPa 0,0 l/m 0 min 0 min 0,0 UV-I 0 W/m 0,0 km/h (0 Bft)
07.08.2013 05:38 14,7 C 13,4 C 93 % 1012,4 hPa 0,0 l/m 0 min 0 min 0,0 UV-I 0 W/m 0,0 km/h (0 Bft)
07.08.2013 05:40 14,7 C 13,4 C 93 % 1012,5 hPa 0,0 l/m 0 min 0 min 0,0 UV-I 0 W/m 0,0 km/h (0 Bft)
07.08.2013 05:42 14,6 C 13,4 C 93 % 1012,5 hPa 0,0 l/m 0 min 0 min 0,0 UV-I 0 W/m 0,0 km/h (0 Bft)
07.08.2013 05:44 14,6 C 13,4 C 93 % 1012,6 hPa 0,0 l/m 0 min 0 min 0,0 UV-I 0 W/m 0,0 km/h (0 Bft)
07.08.2013 05:46 14,5 C 13,4 C 93 % 1012,5 hPa 0,0 l/m 0 min 0 min 0,0 UV-I 0 W/m 0,0 km/h (0 Bft)
07.08.2013 05:48 14,4 C 13,4 C 94 % 1012,4 hPa 0,0 l/m 0 min 0 min 0,0 UV-I 0 W/m 0,0 km/h (0 Bft)
07.08.2013 05:50 14,4 C 13,4 C 94 % 1012,4 hPa 0,0 l/m 0 min 0 min 0,0 UV-I 0 W/m 0,0 km/h (0 Bft)
07.08.2013 05:52 14,3 C 13,4 C 94 % 1012,4 hPa 0,0 l/m 0 min 0 min 0,0 UV-I 0 W/m 0,0 km/h (0 Bft)
07.08.2013 05:54 14,3 C 12,9 C 94 % 1012,4 hPa 0,0 l/m 0 min 0 min 0,0 UV-I 0 W/m 0,0 km/h (0 Bft)
07.08.2013 05:56 14,2 C 12,9 C 94 % 1012,3 hPa 0,0 l/m 0 min 0 min 0,0 UV-I 0 W/m 0,0 km/h (0 Bft)
07.08.2013 05:58 14,2 C 12,9 C 94 % 1012,2 hPa 0,0 l/m 0 min 0 min 0,0 UV-I 0 W/m 0,0 km/h (0 Bft)
07.08.2013 06:00 14,2 C 13,4 C 94 % 1012,1 hPa 0,0 l/m 0 min 0 min 0,0 UV-I 0 W/m 0,0 km/h (0 Bft)
07.08.2013 06:02 14,3 C 13,4 C 94 % 1012,2 hPa 0,0 l/m 0 min 0 min 0,0 UV-I 0 W/m 0,0 km/h (0 Bft)
07.08.2013 06:06 14,4 C 13,4 C 95 % 1012,1 hPa 0,0 l/m 0 min 0 min 0,0 UV-I 0 W/m 0,0 km/h (0 Bft)
07.08.2013 06:08 14,5 C 13,4 C 95 % 1012,0 hPa 0,0 l/m 0 min 0 min 0,0 UV-I 0 W/m 0,0 km/h (0 Bft)
07.08.2013 06:10 14,5 C 13,4 C 95 % 1012,1 hPa 0,0 l/m 0 min 0 min 0,0 UV-I 5 W/m 0,0 km/h (0 Bft)
07.08.2013 06:12 14,6 C 13,4 C 95 % 1012,1 hPa 0,0 l/m 0 min 0 min 0,0 UV-I 5 W/m 0,0 km/h (0 Bft)
07.08.2013 06:14 14,6 C 14,0 C 95 % 1012,0 hPa 0,0 l/m 0 min 0 min 0,0 UV-I 7 W/m 0,0 km/h (0 Bft)
07.08.2013 06:16 14,7 C 14,0 C 95 % 1012,0 hPa 0,0 l/m 0 min 0 min 0,0 UV-I 9 W/m 0,0 km/h (0 Bft)
07.08.2013 06:18 14,7 C 14,0 C 95 % 1011,9 hPa 0,0 l/m 0 min 0 min 0,0 UV-I 11 W/m 0,0 km/h (0 Bft)
07.08.2013 06:20 14,6 C 13,4 C 95 % 1012,0 hPa 0,0 l/m 0 min 0 min 0,0 UV-I 12 W/m 0,0 km/h (0 Bft)
07.08.2013 06:22 14,6 C 13,4 C 95 % 1011,9 hPa 0,0 l/m 0 min 0 min 0,0 UV-I 14 W/m 0,0 km/h (0 Bft)
07.08.2013 06:24 14,7 C 14,0 C 95 % 1011,9 hPa 0,0 l/m 0 min 0 min 0,0 UV-I 16 W/m 0,0 km/h (0 Bft)
07.08.2013 06:26 14,7 C 14,0 C 95 % 1011,9 hPa 0,0 l/m 0 min 0 min 0,0 UV-I 18 W/m 0,0 km/h (0 Bft)
07.08.2013 06:28 14,8 C 14,0 C 95 % 1011,9 hPa 0,0 l/m 2 min 0 min 0,0 UV-I 19 W/m 0,0 km/h (0 Bft)
07.08.2013 06:30 14,9 C 14,0 C 95 % 1012,0 hPa 0,0 l/m 0 min 0 min 0,0 UV-I 21 W/m 0,0 km/h (0 Bft)
07.08.2013 06:32 14,9 C 14,0 C 95 % 1012,0 hPa 0,0 l/m 2 min 0 min 0,0 UV-I 25 W/m 0,0 km/h (0 Bft)
07.08.2013 06:34 15,0 C 14,6 C 95 % 1012,0 hPa 0,0 l/m 0 min 0 min 0,0 UV-I 26 W/m 0,0 km/h (0 Bft)
07.08.2013 06:36 15,0 C 14,0 C 95 % 1011,9 hPa 0,0 l/m 0 min 0 min 0,0 UV-I 28 W/m 0,0 km/h (0 Bft)
07.08.2013 06:38 15,0 C 14,6 C 95 % 1011,9 hPa 0,0 l/m 0 min 0 min 0,0 UV-I 28 W/m 0,0 km/h (0 Bft)
07.08.2013 06:40 15,1 C 14,6 C 95 % 1011,9 hPa 0,0 l/m 0 min 0 min 0,0 UV-I 28 W/m 0,0 km/h (0 Bft)
07.08.2013 06:42 15,1 C 14,6 C 95 % 1011,9 hPa 0,0 l/m 0 min 0 min 0,0 UV-I 26 W/m 0,0 km/h (0 Bft)
07.08.2013 06:44 15,2 C 14,6 C 95 % 1011,8 hPa 0,0 l/m 0 min 0 min 0,0 UV-I 26 W/m 0,0 km/h (0 Bft)
07.08.2013 06:46 15,2 C 14,6 C 95 % 1011,8 hPa 0,0 l/m 0 min 0 min 0,0 UV-I 26 W/m 0,0 km/h (0 Bft)
07.08.2013 06:48 15,3 C 14,6 C 95 % 1011,9 hPa 0,0 l/m 0 min 0 min 0,0 UV-I 28 W/m 0,0 km/h (0 Bft)
07.08.2013 06:50 15,3 C 14,6 C 95 % 1011,9 hPa 0,0 l/m 0 min 0 min 0,0 UV-I 32 W/m 0,0 km/h (0 Bft)
07.08.2013 06:52 15,3 C 14,6 C 94 % 1012,0 hPa 0,0 l/m 0 min 0 min 0,0 UV-I 33 W/m 0,0 km/h (0 Bft)
07.08.2013 06:54 15,3 C 14,6 C 94 % 1012,1 hPa 0,0 l/m 0 min 0 min 0,0 UV-I 37 W/m 0,0 km/h (0 Bft)
07.08.2013 06:56 15,4 C 14,6 C 94 % 1012,0 hPa 0,0 l/m 0 min 0 min 0,0 UV-I 42 W/m 0,0 km/h (0 Bft)
07.08.2013 06:58 15,4 C 15,1 C 94 % 1011,9 hPa 0,0 l/m 0 min 0 min 0,0 UV-I 44 W/m 0,0 km/h (0 Bft)
07.08.2013 07:00 15,4 C 15,1 C 94 % 1012,0 hPa 0,0 l/m 0 min 0 min 0,0 UV-I 40 W/m 0,0 km/h (0 Bft)
07.08.2013 07:02 15,5 C 15,1 C 94 % 1012,0 hPa 0,0 l/m 0 min 0 min 0,0 UV-I 35 W/m 0,0 km/h (0 Bft)
07.08.2013 07:06 15,7 C 15,1 C 94 % 1012,0 hPa 0,0 l/m 0 min 0 min 0,0 UV-I 30 W/m 0,0 km/h (0 Bft)
07.08.2013 07:08 15,7 C 15,1 C 94 % 1011,9 hPa 0,0 l/m 0 min 0 min 0,0 UV-I 30 W/m 2,6 km/h (1 Bft)
07.08.2013 07:10 15,8 C 15,7 C 94 % 1012,0 hPa 0,0 l/m 0 min 0 min 0,0 UV-I 30 W/m 0,0 km/h (0 Bft)
07.08.2013 07:12 15,9 C 15,7 C 94 % 1011,9 hPa 0,0 l/m 0 min 0 min 0,0 UV-I 32 W/m 5,1 km/h (1 Bft)
07.08.2013 07:14 16,0 C 15,7 C 94 % 1011,9 hPa 0,0 l/m 0 min 0 min 0,0 UV-I 33 W/m 0,0 km/h (0 Bft)
07.08.2013 07:16 16,1 C 15,7 C 94 % 1011,9 hPa 0,0 l/m 0 min 0 min 0,0 UV-I 37 W/m 0,0 km/h (0 Bft)
07.08.2013 07:18 16,2 C 15,7 C 94 % 1011,8 hPa 0,0 l/m 0 min 0 min 0,0 UV-I 35 W/m 0,0 km/h (0 Bft)
07.08.2013 07:20 16,2 C 15,7 C 93 % 1011,9 hPa 0,0 l/m 0 min 0 min 0,0 UV-I 33 W/m 0,0 km/h (0 Bft)
07.08.2013 07:22 16,3 C 15,7 C 93 % 1012,0 hPa 0,0 l/m 0 min 0 min 0,0 UV-I 33 W/m 0,0 km/h (0 Bft)
07.08.2013 07:24 16,3 C 15,7 C 93 % 1012,0 hPa 0,0 l/m 0 min 0 min 0,0 UV-I 37 W/m 0,0 km/h (0 Bft)
07.08.2013 07:26 16,4 C 15,7 C 93 % 1012,0 hPa 0,0 l/m 0 min 0 min 0,0 UV-I 39 W/m 5,1 km/h (1 Bft)
07.08.2013 07:28 16,4 C 15,7 C 93 % 1012,0 hPa 0,0 l/m 0 min 0 min 0,0 UV-I 44 W/m 0,0 km/h (0 Bft)
07.08.2013 07:30 16,5 C 16,2 C 92 % 1012,0 hPa 0,0 l/m 0 min 0 min 0,0 UV-I 46 W/m 2,6 km/h (1 Bft)
07.08.2013 07:32 16,6 C 16,2 C 92 % 1011,9 hPa 0,0 l/m 0 min 0 min 0,0 UV-I 49 W/m 0,0 km/h (0 Bft)
07.08.2013 07:34 16,6 C 16,2 C 92 % 1012,0 hPa 0,0 l/m 0 min 0 min 0,0 UV-I 53 W/m 0,0 km/h (0 Bft)
07.08.2013 07:36 16,7 C 16,2 C 92 % 1011,9 hPa 0,0 l/m 0 min 0 min 0,0 UV-I 53 W/m 2,6 km/h (1 Bft)
07.08.2013 07:38 16,7 C 16,2 C 92 % 1012,0 hPa 0,0 l/m 0 min 0 min 0,0 UV-I 53 W/m 2,6 km/h (1 Bft)
07.08.2013 07:40 16,7 C 16,2 C 92 % 1012,0 hPa 0,0 l/m 0 min 0 min 0,0 UV-I 51 W/m 0,0 km/h (0 Bft)
07.08.2013 07:42 16,8 C 16,2 C 91 % 1012,0 hPa 0,0 l/m 0 min 0 min 0,0 UV-I 49 W/m 2,6 km/h (1 Bft)
07.08.2013 07:44 16,8 C 16,2 C 91 % 1012,0 hPa 0,0 l/m 0 min 0 min 0,0 UV-I 46 W/m 0,0 km/h (0 Bft)
07.08.2013 07:46 16,8 C 16,2 C 91 % 1012,0 hPa 0,0 l/m 0 min 0 min 0,0 UV-I 40 W/m 2,6 km/h (1 Bft)
07.08.2013 07:48 16,8 C 16,2 C 91 % 1012,0 hPa 0,0 l/m 0 min 0 min 0,0 UV-I 39 W/m 2,6 km/h (1 Bft)
07.08.2013 07:50 16,8 C 16,2 C 91 % 1012,0 hPa 0,0 l/m 0 min 0 min 0,0 UV-I 37 W/m 2,6 km/h (1 Bft)
07.08.2013 07:52 16,8 C 16,2 C 91 % 1012,0 hPa 0,0 l/m 0 min 0 min 0,0 UV-I 35 W/m 2,6 km/h (1 Bft)
07.08.2013 07:54 16,8 C 16,2 C 91 % 1012,0 hPa 0,0 l/m 0 min 0 min 0,0 UV-I 37 W/m 0,0 km/h (0 Bft)
07.08.2013 07:56 16,8 C 16,2 C 91 % 1012,0 hPa 0,0 l/m 0 min 0 min 0,0 UV-I 40 W/m 0,0 km/h (0 Bft)
07.08.2013 07:58 16,8 C 16,2 C 91 % 1012,0 hPa 0,0 l/m 0 min 0 min 0,0 UV-I 44 W/m 0,0 km/h (0 Bft)
07.08.2013 08:00 16,8 C 16,2 C 91 % 1012,0 hPa 0,0 l/m 0 min 0 min 0,0 UV-I 42 W/m 0,0 km/h (0 Bft)
07.08.2013 08:02 16,8 C 16,2 C 90 % 1012,0 hPa 0,0 l/m 0 min 0 min 0,0 UV-I 39 W/m 2,6 km/h (1 Bft)
07.08.2013 08:06 16,9 C 16,2 C 90 % 1011,9 hPa 0,0 l/m 0 min 2 min 0,0 UV-I 33 W/m 2,6 km/h (1 Bft)
07.08.2013 08:08 16,8 C 16,2 C 90 % 1011,9 hPa 0,0 l/m 0 min 0 min 0,0 UV-I 33 W/m 7,7 km/h (2 Bft)
07.08.2013 08:10 16,9 C 16,2 C 90 % 1011,8 hPa 0,0 l/m 0 min 0 min 0,0 UV-I 35 W/m 2,6 km/h (1 Bft)
07.08.2013 08:12 16,9 C 16,2 C 90 % 1011,8 hPa 0,0 l/m 0 min 2 min 0,0 UV-I 35 W/m 0,0 km/h (0 Bft)
07.08.2013 08:14 16,8 C 16,2 C 90 % 1011,8 hPa 0,0 l/m 0 min 0 min 0,0 UV-I 35 W/m 2,6 km/h (1 Bft)
07.08.2013 08:16 16,9 C 16,2 C 90 % 1011,8 hPa 0,0 l/m 0 min 2 min 0,0 UV-I 33 W/m 2,6 km/h (1 Bft)
07.08.2013 08:18 16,9 C 16,2 C 91 % 1011,8 hPa 0,0 l/m 0 min 2 min 0,0 UV-I 33 W/m 2,6 km/h (1 Bft)
07.08.2013 08:20 16,9 C 15,7 C 91 % 1011,9 hPa 0,0 l/m 0 min 2 min 0,0 UV-I 32 W/m 2,6 km/h (1 Bft)
07.08.2013 08:22 16,9 C 15,7 C 91 % 1012,0 hPa 0,0 l/m 0 min 2 min 0,0 UV-I 33 W/m 7,7 km/h (2 Bft)
07.08.2013 08:24 16,9 C 15,1 C 91 % 1011,9 hPa 0,0 l/m 0 min 2 min 0,0 UV-I 39 W/m 7,7 km/h (2 Bft)
07.08.2013 08:26 16,8 C 15,1 C 91 % 1011,8 hPa 0,0 l/m 0 min 2 min 0,0 UV-I 56 W/m 2,6 km/h (1 Bft)
07.08.2013 08:28 16,8 C 15,7 C 91 % 1011,8 hPa 0,0 l/m 0 min 2 min 0,0 UV-I 72 W/m 0,0 km/h (0 Bft)
07.08.2013 08:30 16,8 C 15,1 C 92 % 1011,6 hPa 0,0 l/m 0 min 2 min 0,0 UV-I 84 W/m 2,6 km/h (1 Bft)
07.08.2013 08:32 16,8 C 15,1 C 92 % 1011,5 hPa 0,0 l/m 0 min 2 min 0,0 UV-I 91 W/m 0,0 km/h (0 Bft)
07.08.2013 08:34 16,8 C 15,1 C 92 % 1011,4 hPa 0,0 l/m 0 min 2 min 0,0 UV-I 88 W/m 2,6 km/h (1 Bft)
07.08.2013 08:36 16,8 C 15,1 C 93 % 1011,3 hPa 0,0 l/m 0 min 2 min 0,0 UV-I 84 W/m 0,0 km/h (0 Bft)
07.08.2013 08:38 16,7 C 15,1 C 93 % 1011,3 hPa 0,0 l/m 0 min 2 min 0,0 UV-I 79 W/m 2,6 km/h (1 Bft)
07.08.2013 08:40 16,8 C 15,1 C 93 % 1011,2 hPa 0,0 l/m 0 min 2 min 0,0 UV-I 77 W/m 0,0 km/h (0 Bft)
07.08.2013 08:42 16,7 C 15,1 C 93 % 1011,2 hPa 0,0 l/m 0 min 2 min 0,0 UV-I 77 W/m 2,6 km/h (1 Bft)
07.08.2013 08:44 16,7 C 15,1 C 94 % 1011,1 hPa 0,0 l/m 0 min 2 min 0,0 UV-I 79 W/m 2,6 km/h (1 Bft)
07.08.2013 08:46 16,7 C 15,1 C 94 % 1011,0 hPa 0,0 l/m 0 min 0 min 0,0 UV-I 83 W/m 2,6 km/h (1 Bft)
07.08.2013 08:48 16,7 C 15,1 C 93 % 1011,0 hPa 0,0 l/m 0 min 0 min 0,0 UV-I 88 W/m 2,6 km/h (1 Bft)
07.08.2013 08:50 16,7 C 15,1 C 93 % 1010,8 hPa 0,0 l/m 0 min 0 min 0,0 UV-I 97 W/m 2,6 km/h (1 Bft)
07.08.2013 08:52 16,7 C 15,1 C 93 % 1010,7 hPa 0,0 l/m 0 min 0 min 0,0 UV-I 100 W/m 2,6 km/h (1 Bft)
07.08.2013 08:54 16,7 C 15,1 C 93 % 1010,6 hPa 0,0 l/m 0 min 0 min 0,0 UV-I 102 W/m 7,7 km/h (2 Bft)
07.08.2013 08:56 16,7 C 15,1 C 93 % 1010,6 hPa 0,0 l/m 0 min 0 min 0,0 UV-I 100 W/m 2,6 km/h (1 Bft)
07.08.2013 08:58 16,7 C 15,1 C 94 % 1010,6 hPa 0,0 l/m 0 min 0 min 0,0 UV-I 97 W/m 2,6 km/h (1 Bft)
07.08.2013 09:00 16,7 C 15,1 C 94 % 1010,6 hPa 0,0 l/m 0 min 0 min 0,0 UV-I 95 W/m 7,7 km/h (2 Bft)
07.08.2013 09:02 16,7 C 15,1 C 94 % 1010,7 hPa 0,0 l/m 0 min 0 min 0,0 UV-I 93 W/m 2,6 km/h (1 Bft)
07.08.2013 09:06 16,8 C 15,7 C 94 % 1010,6 hPa 0,0 l/m 0 min 0 min 0,0 UV-I 91 W/m 5,1 km/h (1 Bft)
07.08.2013 09:08 16,8 C 15,7 C 94 % 1010,6 hPa 0,0 l/m 0 min 2 min 0,0 UV-I 90 W/m 0,0 km/h (0 Bft)
07.08.2013 09:10 16,8 C 15,7 C 94 % 1010,6 hPa 0,0 l/m 0 min 0 min 0,0 UV-I 90 W/m 2,6 km/h (1 Bft)
07.08.2013 09:12 16,8 C 15,7 C 94 % 1010,5 hPa 0,0 l/m 0 min 0 min 0,0 UV-I 93 W/m 2,6 km/h (1 Bft)
07.08.2013 09:14 16,9 C 15,7 C 93 % 1010,5 hPa 0,0 l/m 0 min 0 min 0,0 UV-I 100 W/m 2,6 km/h (1 Bft)
07.08.2013 09:16 16,9 C 15,7 C 93 % 1010,6 hPa 0,0 l/m 0 min 0 min 0,0 UV-I 105 W/m 5,1 km/h (1 Bft)
07.08.2013 09:18 16,9 C 15,7 C 93 % 1010,5 hPa 0,0 l/m 0 min 2 min 0,0 UV-I 105 W/m 2,6 km/h (1 Bft)
07.08.2013 09:20 16,9 C 15,7 C 93 % 1010,5 hPa 0,0 l/m 0 min 2 min 0,0 UV-I 84 W/m 2,6 km/h (1 Bft)
07.08.2013 09:22 17,0 C 15,7 C 93 % 1010,6 hPa 0,0 l/m 0 min 2 min 0,0 UV-I 69 W/m 2,6 km/h (1 Bft)
07.08.2013 09:24 17,0 C 15,7 C 93 % 1010,5 hPa 0,0 l/m 0 min 2 min 0,0 UV-I 58 W/m 0,0 km/h (0 Bft)
07.08.2013 09:26 17,0 C 15,7 C 93 % 1010,5 hPa 0,0 l/m 0 min 2 min 0,0 UV-I 54 W/m 0,0 km/h (0 Bft)
07.08.2013 09:28 17,0 C 15,7 C 93 % 1010,5 hPa 0,0 l/m 0 min 2 min 0,0 UV-I 54 W/m 0,0 km/h (0 Bft)
07.08.2013 09:30 17,0 C 15,1 C 93 % 1010,5 hPa 0,0 l/m 0 min 2 min 0,0 UV-I 56 W/m 5,1 km/h (1 Bft)
07.08.2013 09:32 17,0 C 15,1 C 93 % 1010,5 hPa 0,2 l/m 0 min 2 min 0,0 UV-I 54 W/m 2,6 km/h (1 Bft)
07.08.2013 09:34 17,0 C 15,7 C 93 % 1010,6 hPa 0,0 l/m 0 min 2 min 0,0 UV-I 51 W/m 0,0 km/h (0 Bft)
07.08.2013 09:36 17,0 C 15,7 C 93 % 1010,6 hPa 0,0 l/m 0 min 2 min 0,0 UV-I 49 W/m 2,6 km/h (1 Bft)
07.08.2013 09:38 17,0 C 15,7 C 93 % 1010,6 hPa 0,0 l/m 0 min 2 min 0,0 UV-I 44 W/m 0,0 km/h (0 Bft)
07.08.2013 09:40 16,9 C 15,7 C 94 % 1010,5 hPa 0,2 l/m 0 min 2 min 0,0 UV-I 42 W/m 0,0 km/h (0 Bft)
07.08.2013 09:42 16,9 C 15,1 C 94 % 1010,5 hPa 0,0 l/m 0 min 2 min 0,0 UV-I 39 W/m 0,0 km/h (0 Bft)
07.08.2013 09:44 16,9 C 15,7 C 94 % 1010,5 hPa 0,0 l/m 0 min 2 min 0,0 UV-I 35 W/m 2,6 km/h (1 Bft)
07.08.2013 09:46 16,9 C 15,7 C 94 % 1010,5 hPa 0,0 l/m 0 min 2 min 0,0 UV-I 33 W/m 0,0 km/h (0 Bft)
07.08.2013 09:48 16,9 C 15,7 C 94 % 1010,5 hPa 0,0 l/m 0 min 2 min 0,0 UV-I 33 W/m 0,0 km/h (0 Bft)
07.08.2013 09:50 16,9 C 15,7 C 95 % 1010,5 hPa 0,2 l/m 0 min 2 min 0,0 UV-I 35 W/m 0,0 km/h (0 Bft)
07.08.2013 09:52 16,8 C 15,7 C 95 % 1010,4 hPa 0,0 l/m 0 min 2 min 0,0 UV-I 40 W/m 0,0 km/h (0 Bft)
07.08.2013 09:54 16,8 C 15,7 C 95 % 1010,3 hPa 0,2 l/m 0 min 2 min 0,0 UV-I 49 W/m 0,0 km/h (0 Bft)
07.08.2013 09:56 16,8 C 15,7 C 95 % 1010,2 hPa 0,0 l/m 0 min 2 min 0,0 UV-I 53 W/m 5,1 km/h (1 Bft)
07.08.2013 09:58 16,8 C 15,7 C 95 % 1010,2 hPa 0,0 l/m 0 min 2 min 0,0 UV-I 54 W/m 0,0 km/h (0 Bft)
07.08.2013 10:00 16,8 C 15,7 C 95 % 1010,1 hPa 0,0 l/m 0 min 2 min 0,0 UV-I 56 W/m 2,6 km/h (1 Bft)
07.08.2013 10:02 16,8 C 15,7 C 95 % 1010,0 hPa 0,0 l/m 0 min 2 min 0,0 UV-I 58 W/m 0,0 km/h (0 Bft)
07.08.2013 10:06 16,8 C 15,7 C 96 % 1010,0 hPa 0,0 l/m 0 min 2 min 0,0 UV-I 60 W/m 2,6 km/h (1 Bft)
07.08.2013 10:08 16,8 C 15,7 C 96 % 1009,9 hPa 0,0 l/m 0 min 2 min 0,0 UV-I 63 W/m 2,6 km/h (1 Bft)
07.08.2013 10:10 16,8 C 15,7 C 96 % 1009,9 hPa 0,2 l/m 0 min 2 min 0,0 UV-I 65 W/m 2,6 km/h (1 Bft)
07.08.2013 10:12 16,7 C 15,7 C 96 % 1009,9 hPa 0,0 l/m 0 min 2 min 0,0 UV-I 70 W/m 2,6 km/h (1 Bft)
07.08.2013 10:14 16,7 C 15,7 C 96 % 1010,0 hPa 0,0 l/m 0 min 2 min 0,0 UV-I 77 W/m 2,6 km/h (1 Bft)
07.08.2013 10:16 16,7 C 15,7 C 96 % 1010,0 hPa 0,0 l/m 0 min 2 min 0,0 UV-I 88 W/m 0,0 km/h (0 Bft)
07.08.2013 10:18 16,7 C 15,7 C 96 % 1010,0 hPa 0,0 l/m 0 min 2 min 0,0 UV-I 91 W/m 2,6 km/h (1 Bft)
07.08.2013 10:20 16,8 C 15,7 C 96 % 1010,0 hPa 0,0 l/m 0 min 2 min 0,0 UV-I 88 W/m 0,0 km/h (0 Bft)
07.08.2013 10:22 16,8 C 15,7 C 96 % 1010,0 hPa 0,0 l/m 0 min 2 min 0,0 UV-I 86 W/m 0,0 km/h (0 Bft)
07.08.2013 10:24 16,8 C 15,7 C 96 % 1010,0 hPa 0,0 l/m 0 min 2 min 0,0 UV-I 81 W/m 0,0 km/h (0 Bft)
07.08.2013 10:26 16,8 C 15,7 C 96 % 1010,0 hPa 0,0 l/m 0 min 2 min 0,0 UV-I 72 W/m 0,0 km/h (0 Bft)
07.08.2013 10:28 16,8 C 15,7 C 96 % 1010,0 hPa 0,0 l/m 0 min 2 min 0,0 UV-I 63 W/m 0,0 km/h (0 Bft)
07.08.2013 10:30 16,8 C 15,7 C 96 % 1010,0 hPa 0,0 l/m 0 min 2 min 0,0 UV-I 62 W/m 0,0 km/h (0 Bft)
07.08.2013 10:32 16,8 C 15,7 C 96 % 1010,0 hPa 0,0 l/m 0 min 0 min 0,0 UV-I 69 W/m 2,6 km/h (1 Bft)
07.08.2013 10:34 16,8 C 15,7 C 96 % 1010,0 hPa 0,0 l/m 0 min 0 min 0,0 UV-I 81 W/m 0,0 km/h (0 Bft)
07.08.2013 10:36 16,8 C 15,7 C 96 % 1010,0 hPa 0,0 l/m 0 min 2 min 0,0 UV-I 79 W/m 2,6 km/h (1 Bft)
07.08.2013 10:38 16,8 C 15,7 C 96 % 1010,0 hPa 0,0 l/m 0 min 0 min 0,0 UV-I 69 W/m 2,6 km/h (1 Bft)
07.08.2013 10:40 16,8 C 15,7 C 96 % 1010,1 hPa 0,0 l/m 0 min 0 min 0,0 UV-I 58 W/m 0,0 km/h (0 Bft)
07.08.2013 10:42 16,8 C 15,7 C 97 % 1010,1 hPa 0,0 l/m 0 min 0 min 0,0 UV-I 49 W/m 2,6 km/h (1 Bft)
07.08.2013 10:44 16,8 C 15,7 C 97 % 1010,0 hPa 0,0 l/m 0 min 0 min 0,0 UV-I 47 W/m 0,0 km/h (0 Bft)
07.08.2013 10:46 16,8 C 15,7 C 97 % 1009,9 hPa 0,0 l/m 0 min 2 min 0,0 UV-I 49 W/m 0,0 km/h (0 Bft)
07.08.2013 10:48 16,9 C 15,7 C 97 % 1009,9 hPa 0,0 l/m 0 min 2 min 0,0 UV-I 60 W/m 0,0 km/h (0 Bft)
07.08.2013 10:50 16,9 C 15,7 C 97 % 1009,9 hPa 0,0 l/m 0 min 2 min 0,0 UV-I 63 W/m 0,0 km/h (0 Bft)
07.08.2013 10:52 16,9 C 15,7 C 97 % 1009,9 hPa 0,0 l/m 0 min 2 min 0,0 UV-I 62 W/m 2,6 km/h (1 Bft)
07.08.2013 10:54 16,9 C 15,7 C 97 % 1009,9 hPa 0,0 l/m 0 min 2 min 0,0 UV-I 54 W/m 0,0 km/h (0 Bft)
07.08.2013 10:56 16,9 C 15,7 C 97 % 1009,9 hPa 0,0 l/m 0 min 2 min 0,0 UV-I 42 W/m 0,0 km/h (0 Bft)
07.08.2013 10:58 16,9 C 15,7 C 97 % 1009,8 hPa 0,2 l/m 0 min 2 min 0,0 UV-I 35 W/m 2,6 km/h (1 Bft)
07.08.2013 11:00 16,9 C 15,7 C 97 % 1009,8 hPa 0,0 l/m 0 min 2 min 0,0 UV-I 37 W/m 0,0 km/h (0 Bft)
07.08.2013 11:02 16,9 C 15,7 C 97 % 1009,8 hPa 0,0 l/m 0 min 2 min 0,0 UV-I 44 W/m 0,0 km/h (0 Bft)
07.08.2013 11:06 16,9 C 15,7 C 97 % 1009,8 hPa 0,0 l/m 0 min 2 min 0,0 UV-I 46 W/m 2,6 km/h (1 Bft)
07.08.2013 11:08 16,8 C 15,7 C 97 % 1009,8 hPa 0,0 l/m 0 min 2 min 0,0 UV-I 42 W/m 2,6 km/h (1 Bft)
07.08.2013 11:10 16,8 C 15,7 C 97 % 1009,8 hPa 0,0 l/m 0 min 2 min 0,0 UV-I 44 W/m 2,6 km/h (1 Bft)
07.08.2013 11:12 16,8 C 15,7 C 97 % 1009,7 hPa 0,0 l/m 0 min 2 min 0,0 UV-I 39 W/m 0,0 km/h (0 Bft)
07.08.2013 11:14 16,8 C 15,7 C 97 % 1009,7 hPa 0,0 l/m 0 min 0 min 0,0 UV-I 42 W/m 0,0 km/h (0 Bft)
07.08.2013 11:16 16,8 C 15,7 C 97 % 1009,5 hPa 0,0 l/m 0 min 0 min 0,0 UV-I 46 W/m 2,6 km/h (1 Bft)
07.08.2013 11:18 16,8 C 15,7 C 97 % 1009,5 hPa 0,0 l/m 0 min 0 min 0,0 UV-I 51 W/m 0,0 km/h (0 Bft)
07.08.2013 11:20 16,9 C 15,7 C 97 % 1009,5 hPa 0,0 l/m 0 min 0 min 0,0 UV-I 53 W/m 0,0 km/h (0 Bft)
07.08.2013 11:22 16,9 C 15,7 C 97 % 1009,5 hPa 0,0 l/m 0 min 0 min 0,0 UV-I 56 W/m 0,0 km/h (0 Bft)
07.08.2013 11:24 16,9 C 15,7 C 97 % 1009,5 hPa 0,0 l/m 0 min 0 min 0,0 UV-I 53 W/m 0,0 km/h (0 Bft)
07.08.2013 11:26 16,9 C 15,7 C 97 % 1009,5 hPa 0,0 l/m 0 min 0 min 0,0 UV-I 40 W/m 0,0 km/h (0 Bft)
07.08.2013 11:28 17,0 C 15,7 C 97 % 1009,5 hPa 0,0 l/m 0 min 0 min 0,0 UV-I 40 W/m 0,0 km/h (0 Bft)
07.08.2013 11:30 16,9 C 15,7 C 97 % 1009,4 hPa 0,0 l/m 0 min 0 min 0,0 UV-I 39 W/m 0,0 km/h (0 Bft)
07.08.2013 11:32 16,9 C 15,7 C 97 % 1009,4 hPa 0,0 l/m 0 min 2 min 0,0 UV-I 32 W/m 0,0 km/h (0 Bft)
07.08.2013 11:34 17,0 C 15,7 C 97 % 1009,4 hPa 0,0 l/m 0 min 2 min 0,0 UV-I 32 W/m 0,0 km/h (0 Bft)
07.08.2013 11:36 17,0 C 15,7 C 97 % 1009,4 hPa 0,0 l/m 0 min 2 min 0,0 UV-I 37 W/m 0,0 km/h (0 Bft)
07.08.2013 11:38 17,0 C 15,7 C 97 % 1009,5 hPa 0,0 l/m 0 min 2 min 0,0 UV-I 35 W/m 0,0 km/h (0 Bft)
07.08.2013 11:40 17,0 C 15,7 C 97 % 1009,6 hPa 0,0 l/m 0 min 2 min 0,0 UV-I 25 W/m 0,0 km/h (0 Bft)
07.08.2013 11:42 17,0 C 15,7 C 97 % 1009,6 hPa 0,0 l/m 0 min 2 min 0,0 UV-I 23 W/m 0,0 km/h (0 Bft)
07.08.2013 11:44 16,9 C 15,7 C 97 % 1009,6 hPa 0,0 l/m 0 min 2 min 0,0 UV-I 19 W/m 0,0 km/h (0 Bft)
07.08.2013 11:46 16,9 C 15,7 C 97 % 1009,6 hPa 0,0 l/m 0 min 2 min 0,0 UV-I 19 W/m 2,6 km/h (1 Bft)
07.08.2013 11:48 16,9 C 15,7 C 97 % 1009,6 hPa 0,0 l/m 0 min 2 min 0,0 UV-I 25 W/m 0,0 km/h (0 Bft)
07.08.2013 11:50 16,9 C 15,7 C 97 % 1009,5 hPa 0,2 l/m 0 min 2 min 0,0 UV-I 25 W/m 0,0 km/h (0 Bft)
07.08.2013 11:52 16,9 C 15,7 C 97 % 1009,4 hPa 0,0 l/m 0 min 2 min 0,0 UV-I 30 W/m 2,6 km/h (1 Bft)
07.08.2013 11:54 16,9 C 15,7 C 97 % 1009,4 hPa 0,0 l/m 0 min 2 min 0,0 UV-I 39 W/m 2,6 km/h (1 Bft)
07.08.2013 11:56 16,9 C 15,7 C 97 % 1009,4 hPa 0,0 l/m 0 min 2 min 0,0 UV-I 49 W/m 2,6 km/h (1 Bft)
07.08.2013 11:58 16,9 C 15,7 C 97 % 1009,3 hPa 0,0 l/m 0 min 2 min 0,0 UV-I 53 W/m 5,1 km/h (1 Bft)
07.08.2013 12:00 16,9 C 15,7 C 97 % 1009,3 hPa 0,0 l/m 0 min 2 min 0,0 UV-I 49 W/m 2,6 km/h (1 Bft)
07.08.2013 12:02 16,9 C 15,7 C 97 % 1009,2 hPa 0,0 l/m 0 min 2 min 0,0 UV-I 51 W/m 10,3 km/h (2 Bft)
07.08.2013 12:06 17,0 C 15,7 C 97 % 1009,2 hPa 0,2 l/m 0 min 2 min 0,0 UV-I 51 W/m 15,4 km/h (3 Bft)
07.08.2013 12:08 17,0 C 16,2 C 98 % 1009,2 hPa 0,0 l/m 0 min 2 min 0,0 UV-I 33 W/m 0,0 km/h (0 Bft)
07.08.2013 12:10 17,0 C 15,7 C 98 % 1009,2 hPa 0,0 l/m 0 min 2 min 0,0 UV-I 40 W/m 2,6 km/h (1 Bft)
07.08.2013 12:12 17,1 C 16,2 C 98 % 1009,1 hPa 0,0 l/m 0 min 2 min 0,0 UV-I 39 W/m 0,0 km/h (0 Bft)
07.08.2013 12:14 17,1 C 16,2 C 98 % 1009,1 hPa 0,0 l/m 0 min 2 min 0,0 UV-I 28 W/m 0,0 km/h (0 Bft)
07.08.2013 12:16 17,1 C 16,2 C 98 % 1009,1 hPa 0,0 l/m 0 min 2 min 0,0 UV-I 26 W/m 0,0 km/h (0 Bft)
07.08.2013 12:18 17,1 C 16,2 C 98 % 1009,2 hPa 0,2 l/m 0 min 2 min 0,0 UV-I 26 W/m 0,0 km/h (0 Bft)
07.08.2013 12:20 17,1 C 16,2 C 98 % 1009,2 hPa 0,0 l/m 0 min 2 min 0,0 UV-I 40 W/m 2,6 km/h (1 Bft)
07.08.2013 12:22 17,1 C 16,2 C 98 % 1009,2 hPa 0,2 l/m 0 min 2 min 0,0 UV-I 28 W/m 2,6 km/h (1 Bft)
07.08.2013 12:24 17,1 C 16,2 C 98 % 1009,2 hPa 0,0 l/m 0 min 2 min 0,0 UV-I 26 W/m 0,0 km/h (0 Bft)
07.08.2013 12:26 17,1 C 16,2 C 98 % 1009,3 hPa 0,0 l/m 0 min 2 min 0,0 UV-I 32 W/m 2,6 km/h (1 Bft)
07.08.2013 12:28 17,1 C 16,2 C 98 % 1009,2 hPa 0,2 l/m 0 min 2 min 0,0 UV-I 26 W/m 0,0 km/h (0 Bft)
07.08.2013 12:30 17,1 C 16,2 C 98 % 1009,0 hPa 0,0 l/m 0 min 2 min 0,0 UV-I 21 W/m 0,0 km/h (0 Bft)
07.08.2013 12:32 17,1 C 16,2 C 98 % 1009,1 hPa 0,2 l/m 0 min 2 min 0,0 UV-I 18 W/m 2,6 km/h (1 Bft)
07.08.2013 12:34 17,1 C 16,2 C 98 % 1009,1 hPa 0,0 l/m 0 min 2 min 0,0 UV-I 21 W/m 0,0 km/h (0 Bft)
07.08.2013 12:36 17,1 C 16,2 C 98 % 1009,1 hPa 0,2 l/m 0 min 2 min 0,0 UV-I 25 W/m 0,0 km/h (0 Bft)
07.08.2013 12:38 17,1 C 16,2 C 98 % 1009,1 hPa 0,0 l/m 0 min 2 min 0,0 UV-I 39 W/m 0,0 km/h (0 Bft)
07.08.2013 12:40 17,1 C 16,2 C 98 % 1009,0 hPa 0,2 l/m 0 min 2 min 0,0 UV-I 39 W/m 0,0 km/h (0 Bft)
07.08.2013 12:42 17,1 C 16,2 C 98 % 1008,9 hPa 0,0 l/m 0 min 2 min 0,0 UV-I 42 W/m 0,0 km/h (0 Bft)
07.08.2013 12:44 17,1 C 16,2 C 98 % 1009,0 hPa 0,0 l/m 0 min 2 min 0,0 UV-I 32 W/m 2,6 km/h (1 Bft)
07.08.2013 12:46 17,1 C 16,2 C 98 % 1008,9 hPa 0,0 l/m 0 min 2 min 0,0 UV-I 26 W/m 2,6 km/h (1 Bft)
07.08.2013 12:48 17,1 C 16,2 C 98 % 1008,8 hPa 0,0 l/m 0 min 2 min 0,0 UV-I 26 W/m 0,0 km/h (0 Bft)
07.08.2013 12:50 17,1 C 16,2 C 98 % 1008,9 hPa 0,0 l/m 0 min 2 min 0,0 UV-I 30 W/m 2,6 km/h (1 Bft)
07.08.2013 12:52 17,1 C 16,2 C 98 % 1008,9 hPa 0,0 l/m 0 min 2 min 0,0 UV-I 26 W/m 0,0 km/h (0 Bft)
07.08.2013 12:54 17,2 C 16,2 C 98 % 1008,9 hPa 0,2 l/m 0 min 2 min 0,0 UV-I 25 W/m 0,0 km/h (0 Bft)
07.08.2013 12:56 17,2 C 16,2 C 98 % 1008,8 hPa 0,0 l/m 0 min 2 min 0,0 UV-I 26 W/m 2,6 km/h (1 Bft)
07.08.2013 12:58 17,2 C 16,2 C 98 % 1008,8 hPa 0,0 l/m 0 min 2 min 0,0 UV-I 23 W/m 0,0 km/h (0 Bft)
07.08.2013 13:00 17,2 C 16,2 C 98 % 1008,8 hPa 0,0 l/m 0 min 0 min 0,0 UV-I 19 W/m 5,1 km/h (1 Bft)
07.08.2013 13:02 17,2 C 16,2 C 98 % 1008,8 hPa 0,0 l/m 0 min 0 min 0,0 UV-I 25 W/m 0,0 km/h (0 Bft)
07.08.2013 13:06 17,2 C 16,2 C 98 % 1008,8 hPa 0,0 l/m 0 min 0 min 0,0 UV-I 32 W/m 0,0 km/h (0 Bft)
07.08.2013 13:08 17,2 C 16,2 C 99 % 1008,8 hPa 0,0 l/m 0 min 0 min 0,0 UV-I 28 W/m 0,0 km/h (0 Bft)
07.08.2013 13:10 17,2 C 16,2 C 99 % 1008,8 hPa 0,0 l/m 0 min 0 min 0,0 UV-I 28 W/m 2,6 km/h (1 Bft)
07.08.2013 13:12 17,2 C 16,2 C 99 % 1008,8 hPa 0,0 l/m 0 min 0 min 0,0 UV-I 28 W/m 2,6 km/h (1 Bft)
07.08.2013 13:14 17,2 C 16,2 C 98 % 1008,8 hPa 0,0 l/m 0 min 0 min 0,0 UV-I 30 W/m 2,6 km/h (1 Bft)
07.08.2013 13:16 17,2 C 16,2 C 99 % 1008,7 hPa 0,0 l/m 0 min 0 min 0,0 UV-I 35 W/m 0,0 km/h (0 Bft)
07.08.2013 13:18 17,3 C 16,2 C 99 % 1008,7 hPa 0,0 l/m 0 min 0 min 0,0 UV-I 37 W/m 0,0 km/h (0 Bft)
07.08.2013 13:20 17,3 C 16,2 C 99 % 1008,6 hPa 0,0 l/m 0 min 0 min 0,0 UV-I 39 W/m 0,0 km/h (0 Bft)
07.08.2013 13:22 17,3 C 16,2 C 99 % 1008,6 hPa 0,0 l/m 0 min 0 min 0,0 UV-I 44 W/m 0,0 km/h (0 Bft)
07.08.2013 13:24 17,3 C 16,2 C 99 % 1008,6 hPa 0,0 l/m 0 min 0 min 0,0 UV-I 47 W/m 0,0 km/h (0 Bft)
07.08.2013 13:26 17,4 C 16,8 C 99 % 1008,6 hPa 0,0 l/m 0 min 0 min 0,0 UV-I 47 W/m 0,0 km/h (0 Bft)
07.08.2013 13:28 17,4 C 16,8 C 99 % 1008,6 hPa 0,0 l/m 0 min 2 min 0,0 UV-I 42 W/m 2,6 km/h (1 Bft)
07.08.2013 13:30 17,3 C 16,8 C 99 % 1008,6 hPa 0,0 l/m 0 min 2 min 0,0 UV-I 42 W/m 0,0 km/h (0 Bft)
07.08.2013 13:32 17,4 C 16,8 C 99 % 1008,6 hPa 0,0 l/m 0 min 2 min 0,0 UV-I 33 W/m 2,6 km/h (1 Bft)
07.08.2013 13:34 17,4 C 16,8 C 99 % 1008,7 hPa 0,0 l/m 0 min 2 min 0,0 UV-I 37 W/m 2,6 km/h (1 Bft)
07.08.2013 13:36 17,4 C 16,8 C 99 % 1008,6 hPa 0,0 l/m 0 min 2 min 0,0 UV-I 54 W/m 0,0 km/h (0 Bft)
07.08.2013 13:38 17,4 C 16,8 C 99 % 1008,6 hPa 0,2 l/m 0 min 2 min 0,0 UV-I 98 W/m 0,0 km/h (0 Bft)
07.08.2013 13:40 17,4 C 16,8 C 99 % 1008,6 hPa 0,0 l/m 0 min 2 min 0,0 UV-I 128 W/m 0,0 km/h (0 Bft)
07.08.2013 13:42 17,6 C 16,8 C 99 % 1008,6 hPa 0,2 l/m 0 min 2 min 0,0 UV-I 146 W/m 2,6 km/h (1 Bft)
07.08.2013 13:44 17,7 C 17,3 C 99 % 1008,5 hPa 0,0 l/m 0 min 2 min 0,0 UV-I 146 W/m 0,0 km/h (0 Bft)
07.08.2013 13:46 17,7 C 17,3 C 99 % 1008,5 hPa 0,0 l/m 0 min 2 min 0,0 UV-I 146 W/m 5,1 km/h (1 Bft)
07.08.2013 13:48 17,8 C 17,3 C 99 % 1008,4 hPa 0,2 l/m 0 min 2 min 0,5 UV-I 165 W/m 0,0 km/h (0 Bft)
07.08.2013 13:50 17,8 C 17,3 C 99 % 1008,3 hPa 0,0 l/m 0 min 0 min 0,0 UV-I 156 W/m 0,0 km/h (0 Bft)
07.08.2013 13:52 17,8 C 17,3 C 99 % 1008,3 hPa 0,0 l/m 0 min 0 min 0,0 UV-I 107 W/m 2,6 km/h (1 Bft)
07.08.2013 13:54 17,8 C 17,3 C 99 % 1008,3 hPa 0,0 l/m 0 min 0 min 0,0 UV-I 60 W/m 0,0 km/h (0 Bft)
07.08.2013 13:56 17,8 C 17,3 C 99 % 1008,3 hPa 0,0 l/m 0 min 0 min 0,0 UV-I 81 W/m 0,0 km/h (0 Bft)
07.08.2013 13:58 17,8 C 17,3 C 99 % 1008,2 hPa 0,0 l/m 0 min 0 min 0,0 UV-I 86 W/m 2,6 km/h (1 Bft)
07.08.2013 14:00 17,8 C 16,8 C 99 % 1008,3 hPa 0,0 l/m 0 min 0 min 0,0 UV-I 109 W/m 0,0 km/h (0 Bft)
07.08.2013 14:02 17,8 C 17,3 C 99 % 1008,3 hPa 0,0 l/m 0 min 0 min 0,9 UV-I 204 W/m 2,6 km/h (1 Bft)
07.08.2013 14:06 18,2 C 17,9 C 99 % 1008,2 hPa 0,0 l/m 0 min 0 min 1,2 UV-I 202 W/m 0,0 km/h (0 Bft)
07.08.2013 14:08 18,3 C 17,9 C 99 % 1008,3 hPa 0,0 l/m 0 min 0 min 0,9 UV-I 186 W/m 0,0 km/h (0 Bft)
07.08.2013 14:10 18,3 C 17,9 C 99 % 1008,2 hPa 0,0 l/m 0 min 0 min 0,9 UV-I 204 W/m 0,0 km/h (0 Bft)
07.08.2013 14:12 18,3 C 17,9 C 99 % 1008,2 hPa 0,0 l/m 0 min 0 min 0,5 UV-I 125 W/m 2,6 km/h (1 Bft)
07.08.2013 14:14 18,3 C 17,9 C 99 % 1008,2 hPa 0,0 l/m 0 min 0 min 0,0 UV-I 121 W/m 0,0 km/h (0 Bft)
07.08.2013 14:16 18,4 C 17,9 C 99 % 1008,1 hPa 0,0 l/m 0 min 0 min 0,0 UV-I 107 W/m 0,0 km/h (0 Bft)
07.08.2013 14:18 18,4 C 17,9 C 99 % 1008,2 hPa 0,0 l/m 0 min 0 min 0,0 UV-I 69 W/m 2,6 km/h (1 Bft)
07.08.2013 14:20 18,3 C 17,3 C 99 % 1008,2 hPa 0,0 l/m 0 min 0 min 0,0 UV-I 53 W/m 7,7 km/h (2 Bft)
07.08.2013 14:22 18,3 C 17,3 C 99 % 1008,2 hPa 0,0 l/m 0 min 0 min 0,0 UV-I 58 W/m 0,0 km/h (0 Bft)
07.08.2013 14:24 18,3 C 17,3 C 99 % 1008,2 hPa 0,0 l/m 0 min 0 min 0,0 UV-I 113 W/m 0,0 km/h (0 Bft)
07.08.2013 14:26 18,3 C 17,3 C 99 % 1008,2 hPa 0,0 l/m 0 min 2 min 0,0 UV-I 111 W/m 2,6 km/h (1 Bft)
07.08.2013 14:28 18,3 C 17,3 C 99 % 1008,2 hPa 0,0 l/m 0 min 2 min 0,0 UV-I 88 W/m 0,0 km/h (0 Bft)
07.08.2013 14:30 18,3 C 17,3 C 99 % 1008,2 hPa 0,0 l/m 0 min 2 min 0,0 UV-I 62 W/m 2,6 km/h (1 Bft)
07.08.2013 14:32 18,3 C 17,3 C 99 % 1008,1 hPa 0,0 l/m 0 min 2 min 0,0 UV-I 47 W/m 0,0 km/h (0 Bft)
07.08.2013 14:34 18,3 C 17,3 C 99 % 1008,1 hPa 0,0 l/m 0 min 0 min 0,0 UV-I 53 W/m 0,0 km/h (0 Bft)
07.08.2013 14:36 18,3 C 17,3 C 99 % 1008,1 hPa 0,0 l/m 0 min 0 min 0,0 UV-I 53 W/m 2,6 km/h (1 Bft)
07.08.2013 14:38 18,3 C 17,3 C 99 % 1008,0 hPa 0,0 l/m 0 min 0 min 0,0 UV-I 54 W/m 2,6 km/h (1 Bft)
07.08.2013 14:40 18,3 C 17,3 C 99 % 1007,9 hPa 0,0 l/m 0 min 0 min 0,0 UV-I 70 W/m 0,0 km/h (0 Bft)
07.08.2013 14:42 18,3 C 17,3 C 99 % 1008,1 hPa 0,0 l/m 0 min 0 min 0,0 UV-I 95 W/m 0,0 km/h (0 Bft)
07.08.2013 14:44 18,3 C 17,3 C 99 % 1008,1 hPa 0,0 l/m 0 min 0 min 0,0 UV-I 127 W/m 2,6 km/h (1 Bft)
07.08.2013 14:46 18,3 C 17,3 C 99 % 1008,1 hPa 0,0 l/m 0 min 0 min 0,5 UV-I 149 W/m 0,0 km/h (0 Bft)
07.08.2013 14:48 18,3 C 17,9 C 99 % 1008,1 hPa 0,0 l/m 0 min 0 min 0,0 UV-I 139 W/m 0,0 km/h (0 Bft)
07.08.2013 14:50 18,5 C 17,9 C 99 % 1008,0 hPa 0,0 l/m 0 min 0 min 0,0 UV-I 118 W/m 0,0 km/h (0 Bft)
07.08.2013 14:52 18,5 C 17,9 C 99 % 1008,0 hPa 0,0 l/m 0 min 0 min 0,0 UV-I 109 W/m 0,0 km/h (0 Bft)
07.08.2013 14:54 18,6 C 17,9 C 99 % 1008,0 hPa 0,0 l/m 0 min 0 min 0,5 UV-I 149 W/m 0,0 km/h (0 Bft)
07.08.2013 14:56 18,6 C 17,9 C 99 % 1008,0 hPa 0,0 l/m 0 min 0 min 0,6 UV-I 155 W/m 0,0 km/h (0 Bft)
07.08.2013 14:58 18,7 C 17,9 C 99 % 1007,9 hPa 0,0 l/m 0 min 0 min 0,5 UV-I 142 W/m 0,0 km/h (0 Bft)
07.08.2013 15:00 18,8 C 18,4 C 99 % 1007,8 hPa 0,0 l/m 0 min 0 min 0,5 UV-I 155 W/m 0,0 km/h (0 Bft)
07.08.2013 15:02 18,9 C 18,4 C 99 % 1007,8 hPa 0,0 l/m 0 min 0 min 0,7 UV-I 186 W/m 0,0 km/h (0 Bft)
07.08.2013 15:06 18,9 C 18,4 C 99 % 1007,9 hPa 0,0 l/m 0 min 0 min 0,0 UV-I 137 W/m 2,6 km/h (1 Bft)
07.08.2013 15:08 18,9 C 18,4 C 99 % 1007,9 hPa 0,0 l/m 0 min 0 min 0,6 UV-I 172 W/m 0,0 km/h (0 Bft)
07.08.2013 15:10 19,0 C 18,4 C 99 % 1008,0 hPa 0,0 l/m 0 min 0 min 0,9 UV-I 206 W/m 0,0 km/h (0 Bft)
07.08.2013 15:12 19,1 C 18,4 C 99 % 1007,9 hPa 0,0 l/m 0 min 0 min 1,1 UV-I 234 W/m 0,0 km/h (0 Bft)
07.08.2013 15:14 19,2 C 19,0 C 99 % 1007,9 hPa 0,0 l/m 0 min 0 min 1,2 UV-I 258 W/m 0,0 km/h (0 Bft)
07.08.2013 15:16 19,4 C 19,0 C 99 % 1008,0 hPa 0,0 l/m 0 min 0 min 1,1 UV-I 229 W/m 0,0 km/h (0 Bft)
07.08.2013 15:18 19,3 C 19,0 C 99 % 1008,1 hPa 0,0 l/m 0 min 0 min 1,1 UV-I 234 W/m 0,0 km/h (0 Bft)
07.08.2013 15:20 19,4 C 19,0 C 99 % 1008,1 hPa 0,0 l/m 0 min 0 min 0,8 UV-I 192 W/m 0,0 km/h (0 Bft)
07.08.2013 15:22 19,4 C 19,0 C 99 % 1008,2 hPa 0,0 l/m 0 min 0 min 1,2 UV-I 255 W/m 0,0 km/h (0 Bft)
07.08.2013 15:24 19,4 C 19,0 C 99 % 1008,1 hPa 0,0 l/m 0 min 0 min 1,1 UV-I 232 W/m 0,0 km/h (0 Bft)
07.08.2013 15:26 19,4 C 19,0 C 98 % 1008,1 hPa 0,0 l/m 0 min 0 min 0,8 UV-I 190 W/m 0,0 km/h (0 Bft)
07.08.2013 15:28 19,6 C 19,0 C 99 % 1008,2 hPa 0,0 l/m 0 min 0 min 0,6 UV-I 185 W/m 0,0 km/h (0 Bft)
07.08.2013 15:30 19,7 C 19,0 C 98 % 1008,1 hPa 0,0 l/m 0 min 0 min 1,4 UV-I 316 W/m 0,0 km/h (0 Bft)
07.08.2013 15:32 19,7 C 19,6 C 98 % 1008,0 hPa 0,0 l/m 0 min 0 min 1,7 UV-I 330 W/m 0,0 km/h (0 Bft)
07.08.2013 15:34 19,7 C 19,0 C 98 % 1008,0 hPa 0,0 l/m 0 min 0 min 1,8 UV-I 329 W/m 0,0 km/h (0 Bft)
07.08.2013 15:36 19,8 C 19,0 C 98 % 1008,0 hPa 0,0 l/m 0 min 0 min 1,5 UV-I 281 W/m 2,6 km/h (1 Bft)
07.08.2013 15:38 19,9 C 19,6 C 98 % 1008,1 hPa 0,0 l/m 0 min 0 min 1,2 UV-I 244 W/m 10,3 km/h (2 Bft)
07.08.2013 15:40 20,0 C 19,0 C 97 % 1008,0 hPa 0,0 l/m 0 min 0 min 0,9 UV-I 211 W/m 0,0 km/h (0 Bft)
07.08.2013 15:42 20,1 C 19,6 C 97 % 1008,1 hPa 0,0 l/m 0 min 0 min 0,9 UV-I 223 W/m 0,0 km/h (0 Bft)
07.08.2013 15:44 20,1 C 19,6 C 97 % 1008,1 hPa 0,0 l/m 0 min 0 min 1,4 UV-I 287 W/m 0,0 km/h (0 Bft)
07.08.2013 15:46 20,3 C 19,6 C 97 % 1008,0 hPa 0,0 l/m 0 min 0 min 1,2 UV-I 236 W/m 0,0 km/h (0 Bft)
07.08.2013 15:48 20,7 C 20,1 C 97 % 1007,9 hPa 0,0 l/m 0 min 0 min 1,1 UV-I 257 W/m 0,0 km/h (0 Bft)
07.08.2013 15:50 20,5 C 19,6 C 97 % 1007,8 hPa 0,0 l/m 0 min 0 min 1,1 UV-I 230 W/m 0,0 km/h (0 Bft)
07.08.2013 15:52 20,4 C 19,6 C 96 % 1007,9 hPa 0,0 l/m 0 min 0 min 0,9 UV-I 213 W/m 0,0 km/h (0 Bft)
07.08.2013 15:54 20,6 C 19,6 C 96 % 1007,9 hPa 0,0 l/m 0 min 0 min 1,0 UV-I 225 W/m 0,0 km/h (0 Bft)
07.08.2013 15:56 20,7 C 20,1 C 96 % 1007,9 hPa 0,0 l/m 0 min 0 min 1,1 UV-I 244 W/m 0,0 km/h (0 Bft)
07.08.2013 15:58 20,7 C 20,1 C 96 % 1007,9 hPa 0,0 l/m 0 min 0 min 1,1 UV-I 251 W/m 0,0 km/h (0 Bft)
07.08.2013 16:00 20,8 C 20,1 C 95 % 1007,9 hPa 0,0 l/m 0 min 0 min 1,3 UV-I 292 W/m 0,0 km/h (0 Bft)
07.08.2013 16:02 20,8 C 20,1 C 96 % 1007,9 hPa 0,0 l/m 0 min 0 min 1,5 UV-I 338 W/m 0,0 km/h (0 Bft)
07.08.2013 16:06 21,1 C 20,7 C 95 % 1007,9 hPa 0,0 l/m 2 min 0 min 2,1 UV-I 468 W/m 0,0 km/h (0 Bft)
07.08.2013 16:08 21,2 C 20,7 C 95 % 1007,8 hPa 0,0 l/m 2 min 0 min 2,2 UV-I 490 W/m 5,1 km/h (1 Bft)
07.08.2013 16:10 21,3 C 20,7 C 94 % 1007,9 hPa 0,0 l/m 2 min 0 min 2,2 UV-I 490 W/m 0,0 km/h (0 Bft)
07.08.2013 16:12 21,4 C 20,7 C 93 % 1008,0 hPa 0,0 l/m 2 min 0 min 2,2 UV-I 431 W/m 2,6 km/h (1 Bft)
07.08.2013 16:14 21,6 C 21,2 C 93 % 1007,9 hPa 0,0 l/m 2 min 0 min 2,3 UV-I 503 W/m 0,0 km/h (0 Bft)
07.08.2013 16:16 21,9 C 21,2 C 94 % 1008,0 hPa 0,0 l/m 2 min 0 min 2,6 UV-I 582 W/m 0,0 km/h (0 Bft)
07.08.2013 16:18 22,3 C 21,8 C 94 % 1007,9 hPa 0,0 l/m 2 min 0 min 2,2 UV-I 478 W/m 0,0 km/h (0 Bft)
07.08.2013 16:20 22,3 C 21,8 C 93 % 1007,9 hPa 0,0 l/m 2 min 0 min 2,7 UV-I 478 W/m 5,1 km/h (1 Bft)
07.08.2013 16:22 22,3 C 21,8 C 92 % 1007,9 hPa 0,0 l/m 2 min 0 min 2,9 UV-I 696 W/m 12,9 km/h (3 Bft)
07.08.2013 16:24 22,6 C 22,3 C 91 % 1007,9 hPa 0,0 l/m 2 min 0 min 2,7 UV-I 649 W/m 7,7 km/h (2 Bft)
07.08.2013 16:26 22,6 C 21,8 C 90 % 1007,9 hPa 0,0 l/m 2 min 0 min 2,3 UV-I 571 W/m 7,7 km/h (2 Bft)
07.08.2013 16:28 22,6 C 22,3 C 88 % 1008,0 hPa 0,0 l/m 2 min 0 min 2,7 UV-I 689 W/m 12,9 km/h (3 Bft)
07.08.2013 16:30 22,7 C 22,3 C 88 % 1008,0 hPa 0,0 l/m 2 min 0 min 3,2 UV-I 810 W/m 7,7 km/h (2 Bft)
07.08.2013 16:32 22,8 C 22,3 C 87 % 1008,0 hPa 0,0 l/m 2 min 0 min 2,8 UV-I 805 W/m 12,9 km/h (3 Bft)
07.08.2013 16:34 23,1 C 22,3 C 89 % 1008,0 hPa 0,0 l/m 2 min 0 min 2,8 UV-I 786 W/m 10,3 km/h (2 Bft)
07.08.2013 16:36 23,2 C 22,9 C 86 % 1008,0 hPa 0,0 l/m 2 min 0 min 2,5 UV-I 693 W/m 12,9 km/h (3 Bft)
07.08.2013 16:38 23,2 C 22,3 C 84 % 1008,1 hPa 0,0 l/m 2 min 0 min 1,6 UV-I 717 W/m 5,1 km/h (1 Bft)
07.08.2013 16:40 23,0 C 22,3 C 85 % 1008,2 hPa 0,0 l/m 2 min 0 min 2,6 UV-I 717 W/m 18,0 km/h (3 Bft)
07.08.2013 16:42 22,9 C 22,3 C 83 % 1008,3 hPa 0,0 l/m 2 min 0 min 2,6 UV-I 615 W/m 25,7 km/h (4 Bft)
07.08.2013 16:44 22,9 C 22,3 C 84 % 1008,2 hPa 0,0 l/m 2 min 0 min 2,5 UV-I 628 W/m 7,7 km/h (2 Bft)
07.08.2013 16:46 22,9 C 22,3 C 84 % 1008,2 hPa 0,0 l/m 2 min 0 min 1,9 UV-I 411 W/m 12,9 km/h (3 Bft)
07.08.2013 16:48 22,9 C 22,3 C 83 % 1008,2 hPa 0,0 l/m 0 min 0 min 1,4 UV-I 309 W/m 2,6 km/h (1 Bft)
07.08.2013 16:50 22,8 C 21,8 C 82 % 1008,2 hPa 0,0 l/m 0 min 0 min 1,3 UV-I 295 W/m 18,0 km/h (3 Bft)
07.08.2013 16:52 22,6 C 21,8 C 82 % 1008,3 hPa 0,0 l/m 0 min 0 min 1,0 UV-I 267 W/m 12,9 km/h (3 Bft)
07.08.2013 16:54 22,4 C 21,8 C 83 % 1008,3 hPa 0,0 l/m 0 min 0 min 1,0 UV-I 283 W/m 7,7 km/h (2 Bft)
07.08.2013 16:56 22,5 C 21,8 C 85 % 1008,3 hPa 0,0 l/m 2 min 0 min 2,7 UV-I 802 W/m 5,1 km/h (1 Bft)
07.08.2013 16:58 22,8 C 22,3 C 85 % 1008,3 hPa 0,0 l/m 2 min 0 min 1,9 UV-I 403 W/m 38,6 km/h (5 Bft)
07.08.2013 17:00 22,7 C 22,3 C 82 % 1008,3 hPa 0,0 l/m 2 min 0 min 1,6 UV-I 403 W/m 12,9 km/h (3 Bft)
07.08.2013 17:02 22,6 C 21,8 C 80 % 1008,4 hPa 0,0 l/m 2 min 0 min 1,8 UV-I 452 W/m 12,9 km/h (3 Bft)
07.08.2013 17:06 22,4 C 21,8 C 82 % 1008,5 hPa 0,0 l/m 2 min 0 min 2,2 UV-I 327 W/m 12,9 km/h (3 Bft)
07.08.2013 17:08 22,4 C 21,8 C 82 % 1008,6 hPa 0,0 l/m 2 min 0 min 2,1 UV-I 601 W/m 10,3 km/h (2 Bft)
07.08.2013 17:10 22,7 C 21,8 C 82 % 1008,4 hPa 0,0 l/m 2 min 0 min 2,0 UV-I 573 W/m 2,6 km/h (1 Bft)
07.08.2013 17:12 22,8 C 21,8 C 81 % 1008,4 hPa 0,0 l/m 2 min 0 min 1,9 UV-I 571 W/m 23,2 km/h (4 Bft)
07.08.2013 17:14 22,7 C 21,8 C 81 % 1008,4 hPa 0,0 l/m 2 min 0 min 1,7 UV-I 524 W/m 18,0 km/h (3 Bft)
07.08.2013 17:16 22,7 C 21,8 C 81 % 1008,3 hPa 0,0 l/m 2 min 0 min 1,4 UV-I 510 W/m 10,3 km/h (2 Bft)
07.08.2013 17:18 22,7 C 21,2 C 80 % 1008,4 hPa 0,0 l/m 2 min 0 min 1,4 UV-I 345 W/m 10,3 km/h (2 Bft)
07.08.2013 17:20 22,6 C 21,2 C 81 % 1008,5 hPa 0,0 l/m 2 min 0 min 1,3 UV-I 359 W/m 7,7 km/h (2 Bft)
07.08.2013 17:22 22,5 C 21,2 C 82 % 1008,4 hPa 0,0 l/m 0 min 0 min 1,3 UV-I 283 W/m 25,7 km/h (4 Bft)
07.08.2013 17:24 22,4 C 21,2 C 82 % 1008,4 hPa 0,0 l/m 2 min 0 min 1,6 UV-I 501 W/m 12,9 km/h (3 Bft)
07.08.2013 17:26 22,5 C 21,8 C 82 % 1008,4 hPa 0,0 l/m 2 min 0 min 1,6 UV-I 550 W/m 10,3 km/h (2 Bft)
07.08.2013 17:28 22,6 C 21,8 C 81 % 1008,3 hPa 0,0 l/m 2 min 0 min 1,6 UV-I 543 W/m 18,0 km/h (3 Bft)
07.08.2013 17:30 22,6 C 21,2 C 80 % 1008,3 hPa 0,0 l/m 2 min 0 min 1,3 UV-I 543 W/m 18,0 km/h (3 Bft)
07.08.2013 17:32 22,6 C 21,2 C 81 % 1008,3 hPa 0,0 l/m 2 min 0 min 1,4 UV-I 427 W/m 5,1 km/h (1 Bft)
07.08.2013 17:34 22,6 C 21,2 C 80 % 1008,2 hPa 0,0 l/m 2 min 0 min 1,5 UV-I 503 W/m 12,9 km/h (3 Bft)
07.08.2013 17:36 22,6 C 21,8 C 82 % 1008,3 hPa 0,0 l/m 2 min 0 min 1,5 UV-I 503 W/m 15,4 km/h (3 Bft)
07.08.2013 17:38 22,7 C 21,8 C 81 % 1008,3 hPa 0,0 l/m 2 min 0 min 1,5 UV-I 550 W/m 10,3 km/h (2 Bft)
07.08.2013 17:40 22,7 C 21,8 C 81 % 1008,3 hPa 0,0 l/m 2 min 0 min 1,5 UV-I 550 W/m 12,9 km/h (3 Bft)
07.08.2013 17:42 22,7 C 21,8 C 81 % 1008,5 hPa 0,0 l/m 2 min 0 min 1,3 UV-I 489 W/m 0,0 km/h (0 Bft)
07.08.2013 17:44 22,8 C 21,8 C 81 % 1008,4 hPa 0,0 l/m 2 min 0 min 1,2 UV-I 457 W/m 15,4 km/h (3 Bft)
07.08.2013 17:46 22,8 C 21,8 C 81 % 1008,4 hPa 0,0 l/m 2 min 0 min 1,1 UV-I 373 W/m 2,6 km/h (1 Bft)
07.08.2013 17:48 22,7 C 21,8 C 81 % 1008,5 hPa 0,0 l/m 2 min 0 min 0,9 UV-I 287 W/m 15,4 km/h (3 Bft)
07.08.2013 17:50 22,6 C 21,2 C 81 % 1008,5 hPa 0,0 l/m 2 min 0 min 0,8 UV-I 276 W/m 12,9 km/h (3 Bft)
07.08.2013 17:52 22,4 C 21,2 C 81 % 1008,4 hPa 0,0 l/m 0 min 0 min 0,7 UV-I 262 W/m 15,4 km/h (3 Bft)
07.08.2013 17:54 22,3 C 21,2 C 82 % 1008,3 hPa 0,0 l/m 0 min 0 min 0,5 UV-I 158 W/m 12,9 km/h (3 Bft)
07.08.2013 17:56 22,2 C 21,2 C 81 % 1008,5 hPa 0,0 l/m 0 min 0 min 0,5 UV-I 163 W/m 15,4 km/h (3 Bft)
07.08.2013 17:58 22,0 C 20,7 C 82 % 1008,6 hPa 0,0 l/m 0 min 0 min 0,5 UV-I 193 W/m 7,7 km/h (2 Bft)
07.08.2013 18:00 21,9 C 20,7 C 82 % 1008,5 hPa 0,0 l/m 0 min 0 min 0,5 UV-I 199 W/m 18,0 km/h (3 Bft)
07.08.2013 18:02 21,8 C 20,7 C 83 % 1008,6 hPa 0,0 l/m 0 min 0 min 0,5 UV-I 190 W/m 7,7 km/h (2 Bft)
07.08.2013 18:06 21,7 C 20,7 C 83 % 1008,7 hPa 0,0 l/m 0 min 0 min 0,5 UV-I 216 W/m 18,0 km/h (3 Bft)
07.08.2013 18:08 21,6 C 20,7 C 83 % 1008,7 hPa 0,0 l/m 0 min 0 min 0,5 UV-I 214 W/m 18,0 km/h (3 Bft)
07.08.2013 18:10 21,5 C 20,7 C 83 % 1008,7 hPa 0,0 l/m 0 min 0 min 0,0 UV-I 218 W/m 12,9 km/h (3 Bft)
07.08.2013 18:12 21,5 C 20,7 C 84 % 1008,7 hPa 0,0 l/m 0 min 0 min 0,0 UV-I 220 W/m 2,6 km/h (1 Bft)
07.08.2013 18:14 21,5 C 20,7 C 84 % 1008,7 hPa 0,0 l/m 0 min 0 min 0,0 UV-I 202 W/m 7,7 km/h (2 Bft)
07.08.2013 18:16 21,5 C 20,7 C 85 % 1008,7 hPa 0,0 l/m 0 min 0 min 0,0 UV-I 190 W/m 2,6 km/h (1 Bft)
07.08.2013 18:18 21,5 C 21,2 C 85 % 1008,7 hPa 0,0 l/m 0 min 0 min 0,0 UV-I 165 W/m 7,7 km/h (2 Bft)
07.08.2013 18:20 21,5 C 20,7 C 85 % 1008,7 hPa 0,0 l/m 0 min 0 min 0,0 UV-I 156 W/m 5,1 km/h (1 Bft)
07.08.2013 18:22 21,4 C 20,7 C 86 % 1008,7 hPa 0,0 l/m 0 min 0 min 0,0 UV-I 176 W/m 5,1 km/h (1 Bft)
07.08.2013 18:24 21,4 C 20,7 C 86 % 1008,8 hPa 0,0 l/m 0 min 0 min 0,0 UV-I 209 W/m 12,9 km/h (3 Bft)
07.08.2013 18:26 21,4 C 20,7 C 86 % 1008,7 hPa 0,0 l/m 0 min 0 min 0,0 UV-I 202 W/m 2,6 km/h (1 Bft)
07.08.2013 18:28 21,3 C 20,7 C 86 % 1008,8 hPa 0,0 l/m 0 min 0 min 0,0 UV-I 213 W/m 2,6 km/h (1 Bft)
07.08.2013 18:30 21,3 C 20,7 C 86 % 1008,8 hPa 0,0 l/m 0 min 0 min 0,0 UV-I 188 W/m 12,9 km/h (3 Bft)
07.08.2013 18:32 21,2 C 20,7 C 86 % 1008,9 hPa 0,0 l/m 0 min 0 min 0,0 UV-I 193 W/m 10,3 km/h (2 Bft)
07.08.2013 18:34 21,1 C 20,7 C 86 % 1008,8 hPa 0,0 l/m 0 min 0 min 0,0 UV-I 199 W/m 7,7 km/h (2 Bft)
07.08.2013 18:36 21,1 C 20,7 C 86 % 1008,9 hPa 0,0 l/m 0 min 0 min 0,0 UV-I 181 W/m 7,7 km/h (2 Bft)
07.08.2013 18:38 21,0 C 20,7 C 87 % 1008,9 hPa 0,0 l/m 0 min 0 min 0,0 UV-I 169 W/m 10,3 km/h (2 Bft)
07.08.2013 18:40 20,9 C 20,7 C 87 % 1008,9 hPa 0,0 l/m 0 min 0 min 0,0 UV-I 160 W/m 7,7 km/h (2 Bft)
07.08.2013 18:42 20,8 C 20,1 C 86 % 1008,9 hPa 0,0 l/m 0 min 0 min 0,0 UV-I 146 W/m 18,0 km/h (3 Bft)
07.08.2013 18:44 20,7 C 20,1 C 86 % 1008,9 hPa 0,0 l/m 0 min 0 min 0,0 UV-I 148 W/m 7,7 km/h (2 Bft)
07.08.2013 18:46 20,7 C 20,1 C 87 % 1008,9 hPa 0,0 l/m 0 min 0 min 0,0 UV-I 185 W/m 12,9 km/h (3 Bft)
07.08.2013 18:48 20,7 C 20,1 C 87 % 1008,9 hPa 0,0 l/m 0 min 0 min 0,0 UV-I 186 W/m 12,9 km/h (3 Bft)
07.08.2013 18:50 20,7 C 20,1 C 87 % 1008,9 hPa 0,0 l/m 0 min 0 min 0,0 UV-I 158 W/m 12,9 km/h (3 Bft)
07.08.2013 18:52 20,7 C 20,1 C 87 % 1008,8 hPa 0,0 l/m 0 min 0 min 0,0 UV-I 178 W/m 10,3 km/h (2 Bft)
07.08.2013 18:54 20,7 C 20,1 C 87 % 1008,8 hPa 0,0 l/m 0 min 0 min 0,0 UV-I 174 W/m 2,6 km/h (1 Bft)
07.08.2013 18:56 20,6 C 20,1 C 87 % 1008,8 hPa 0,0 l/m 0 min 0 min 0,0 UV-I 146 W/m 10,3 km/h (2 Bft)
07.08.2013 18:58 20,6 C 20,1 C 86 % 1008,8 hPa 0,0 l/m 0 min 0 min 0,0 UV-I 153 W/m 10,3 km/h (2 Bft)
07.08.2013 19:00 20,6 C 20,1 C 87 % 1008,8 hPa 0,0 l/m 2 min 0 min 0,0 UV-I 179 W/m 10,3 km/h (2 Bft)
07.08.2013 19:02 20,6 C 20,1 C 86 % 1008,8 hPa 0,0 l/m 2 min 0 min 0,0 UV-I 214 W/m 18,0 km/h (3 Bft)
07.08.2013 19:06 20,7 C 20,1 C 87 % 1008,8 hPa 0,0 l/m 2 min 0 min 0,0 UV-I 204 W/m 10,3 km/h (2 Bft)
07.08.2013 19:08 20,8 C 20,7 C 87 % 1008,9 hPa 0,0 l/m 2 min 0 min 0,0 UV-I 176 W/m 2,6 km/h (1 Bft)
07.08.2013 19:10 20,8 C 20,7 C 87 % 1008,9 hPa 0,0 l/m 2 min 0 min 0,0 UV-I 181 W/m 2,6 km/h (1 Bft)
07.08.2013 19:12 20,7 C 20,1 C 87 % 1008,9 hPa 0,0 l/m 2 min 0 min 0,0 UV-I 183 W/m 2,6 km/h (1 Bft)
07.08.2013 19:14 20,6 C 20,1 C 86 % 1009,0 hPa 0,0 l/m 2 min 0 min 0,0 UV-I 172 W/m 15,4 km/h (3 Bft)
07.08.2013 19:16 20,5 C 20,1 C 86 % 1009,1 hPa 0,0 l/m 2 min 0 min 0,0 UV-I 172 W/m 12,9 km/h (3 Bft)
07.08.2013 19:18 20,3 C 20,1 C 86 % 1009,1 hPa 0,0 l/m 0 min 0 min 0,0 UV-I 137 W/m 10,3 km/h (2 Bft)
07.08.2013 19:20 20,2 C 20,1 C 87 % 1009,1 hPa 0,0 l/m 0 min 0 min 0,0 UV-I 123 W/m 7,7 km/h (2 Bft)
07.08.2013 19:22 20,2 C 19,6 C 87 % 1009,1 hPa 0,0 l/m 0 min 0 min 0,0 UV-I 105 W/m 0,0 km/h (0 Bft)
07.08.2013 19:24 20,1 C 19,6 C 87 % 1009,3 hPa 0,0 l/m 0 min 0 min 0,0 UV-I 95 W/m 7,7 km/h (2 Bft)
07.08.2013 19:26 20,1 C 19,6 C 87 % 1009,2 hPa 0,0 l/m 0 min 0 min 0,0 UV-I 98 W/m 0,0 km/h (0 Bft)
07.08.2013 19:28 20,0 C 19,6 C 87 % 1009,3 hPa 0,0 l/m 0 min 0 min 0,0 UV-I 104 W/m 5,1 km/h (1 Bft)
07.08.2013 19:30 19,9 C 19,6 C 87 % 1009,4 hPa 0,0 l/m 0 min 0 min 0,0 UV-I 123 W/m 7,7 km/h (2 Bft)
07.08.2013 19:32 19,8 C 19,6 C 87 % 1009,3 hPa 0,0 l/m 0 min 0 min 0,0 UV-I 121 W/m 12,9 km/h (3 Bft)
07.08.2013 19:34 19,8 C 19,6 C 87 % 1009,3 hPa 0,0 l/m 0 min 0 min 0,0 UV-I 104 W/m 0,0 km/h (0 Bft)
07.08.2013 19:36 19,8 C 19,6 C 88 % 1009,3 hPa 0,0 l/m 0 min 0 min 0,0 UV-I 81 W/m 0,0 km/h (0 Bft)
07.08.2013 19:38 19,8 C 19,0 C 88 % 1009,4 hPa 0,0 l/m 0 min 0 min 0,0 UV-I 70 W/m 2,6 km/h (1 Bft)
07.08.2013 19:40 19,7 C 19,0 C 88 % 1009,4 hPa 0,0 l/m 0 min 0 min 0,0 UV-I 63 W/m 0,0 km/h (0 Bft)
07.08.2013 19:42 19,7 C 19,0 C 88 % 1009,3 hPa 0,0 l/m 0 min 0 min 0,0 UV-I 51 W/m 0,0 km/h (0 Bft)
07.08.2013 19:44 19,6 C 19,0 C 88 % 1009,3 hPa 0,0 l/m 0 min 0 min 0,0 UV-I 42 W/m 2,6 km/h (1 Bft)
07.08.2013 19:46 19,6 C 19,0 C 88 % 1009,3 hPa 0,0 l/m 0 min 0 min 0,0 UV-I 35 W/m 2,6 km/h (1 Bft)
07.08.2013 19:48 19,4 C 18,4 C 88 % 1009,4 hPa 0,0 l/m 0 min 0 min 0,0 UV-I 33 W/m 2,6 km/h (1 Bft)
07.08.2013 19:50 19,3 C 18,4 C 88 % 1009,4 hPa 0,0 l/m 0 min 0 min 0,0 UV-I 33 W/m 0,0 km/h (0 Bft)
07.08.2013 19:52 19,3 C 18,4 C 88 % 1009,4 hPa 0,0 l/m 0 min 0 min 0,0 UV-I 37 W/m 0,0 km/h (0 Bft)
07.08.2013 19:54 19,2 C 18,4 C 89 % 1009,4 hPa 0,0 l/m 0 min 0 min 0,0 UV-I 35 W/m 2,6 km/h (1 Bft)
07.08.2013 19:56 19,1 C 18,4 C 89 % 1009,4 hPa 0,0 l/m 0 min 0 min 0,0 UV-I 35 W/m 0,0 km/h (0 Bft)
07.08.2013 19:58 19,0 C 17,9 C 89 % 1009,4 hPa 0,0 l/m 0 min 2 min 0,0 UV-I 37 W/m 5,1 km/h (1 Bft)
07.08.2013 20:00 18,9 C 17,9 C 90 % 1009,4 hPa 0,0 l/m 0 min 2 min 0,0 UV-I 39 W/m 0,0 km/h (0 Bft)
07.08.2013 20:02 18,9 C 17,9 C 90 % 1009,4 hPa 0,0 l/m 0 min 2 min 0,0 UV-I 42 W/m 0,0 km/h (0 Bft)
07.08.2013 20:06 18,6 C 17,3 C 91 % 1009,4 hPa 0,0 l/m 0 min 2 min 0,0 UV-I 46 W/m 2,6 km/h (1 Bft)
07.08.2013 20:08 18,4 C 16,8 C 91 % 1009,4 hPa 0,0 l/m 0 min 2 min 0,0 UV-I 40 W/m 2,6 km/h (1 Bft)
07.08.2013 20:10 18,4 C 16,8 C 92 % 1009,4 hPa 0,0 l/m 0 min 2 min 0,0 UV-I 39 W/m 0,0 km/h (0 Bft)
07.08.2013 20:12 18,3 C 16,8 C 92 % 1009,5 hPa 0,0 l/m 0 min 2 min 0,0 UV-I 37 W/m 2,6 km/h (1 Bft)
07.08.2013 20:14 18,2 C 16,8 C 92 % 1009,5 hPa 0,0 l/m 0 min 2 min 0,0 UV-I 33 W/m 0,0 km/h (0 Bft)
07.08.2013 20:16 18,2 C 16,8 C 93 % 1009,5 hPa 0,2 l/m 0 min 2 min 0,0 UV-I 26 W/m 0,0 km/h (0 Bft)
07.08.2013 20:18 18,1 C 16,8 C 93 % 1009,6 hPa 0,0 l/m 0 min 2 min 0,0 UV-I 19 W/m 7,7 km/h (2 Bft)
07.08.2013 20:20 18,0 C 16,8 C 93 % 1009,7 hPa 0,0 l/m 0 min 2 min 0,0 UV-I 16 W/m 2,6 km/h (1 Bft)
07.08.2013 20:22 18,0 C 16,8 C 93 % 1009,7 hPa 0,0 l/m 0 min 2 min 0,0 UV-I 16 W/m 0,0 km/h (0 Bft)
07.08.2013 20:24 17,9 C 16,2 C 94 % 1009,7 hPa 0,0 l/m 0 min 2 min 0,0 UV-I 18 W/m 0,0 km/h (0 Bft)
07.08.2013 20:26 17,8 C 16,2 C 94 % 1009,7 hPa 0,0 l/m 0 min 2 min 0,0 UV-I 21 W/m 0,0 km/h (0 Bft)
07.08.2013 20:28 17,8 C 16,2 C 94 % 1009,6 hPa 0,0 l/m 0 min 2 min 0,0 UV-I 25 W/m 2,6 km/h (1 Bft)
07.08.2013 20:30 17,7 C 16,2 C 94 % 1009,7 hPa 0,0 l/m 0 min 2 min 0,0 UV-I 26 W/m 0,0 km/h (0 Bft)
07.08.2013 20:32 17,7 C 16,2 C 94 % 1009,7 hPa 0,0 l/m 0 min 0 min 0,0 UV-I 28 W/m 0,0 km/h (0 Bft)
07.08.2013 20:34 17,6 C 16,2 C 94 % 1009,6 hPa 0,0 l/m 0 min 0 min 0,0 UV-I 28 W/m 0,0 km/h (0 Bft)
07.08.2013 20:36 17,6 C 16,2 C 95 % 1009,7 hPa 0,0 l/m 0 min 0 min 0,0 UV-I 30 W/m 2,6 km/h (1 Bft)
07.08.2013 20:38 17,6 C 16,2 C 95 % 1009,7 hPa 0,2 l/m 0 min 2 min 0,0 UV-I 33 W/m 0,0 km/h (0 Bft)
07.08.2013 20:40 17,5 C 16,2 C 95 % 1009,7 hPa 0,0 l/m 0 min 2 min 0,0 UV-I 32 W/m 0,0 km/h (0 Bft)
07.08.2013 20:42 17,4 C 16,2 C 95 % 1009,7 hPa 0,0 l/m 2 min 2 min 0,0 UV-I 35 W/m 2,6 km/h (1 Bft)
07.08.2013 20:44 17,4 C 16,2 C 95 % 1009,5 hPa 0,0 l/m 2 min 0 min 0,0 UV-I 42 W/m 2,6 km/h (1 Bft)
07.08.2013 20:46 17,4 C 16,2 C 95 % 1009,4 hPa 0,0 l/m 2 min 2 min 0,0 UV-I 40 W/m 0,0 km/h (0 Bft)
07.08.2013 20:48 17,3 C 16,2 C 95 % 1009,4 hPa 0,0 l/m 2 min 2 min 0,0 UV-I 35 W/m 0,0 km/h (0 Bft)
07.08.2013 20:50 17,3 C 16,2 C 95 % 1009,5 hPa 0,0 l/m 2 min 2 min 0,0 UV-I 37 W/m 0,0 km/h (0 Bft)
07.08.2013 20:52 17,3 C 16,2 C 95 % 1009,5 hPa 0,0 l/m 2 min 2 min 0,0 UV-I 35 W/m 0,0 km/h (0 Bft)
07.08.2013 20:54 17,2 C 16,2 C 95 % 1009,4 hPa 0,0 l/m 2 min 0 min 0,0 UV-I 33 W/m 2,6 km/h (1 Bft)
07.08.2013 20:56 17,2 C 16,2 C 96 % 1009,4 hPa 0,0 l/m 2 min 2 min 0,0 UV-I 28 W/m 0,0 km/h (0 Bft)
07.08.2013 20:58 17,1 C 15,7 C 96 % 1009,4 hPa 0,0 l/m 2 min 2 min 0,0 UV-I 25 W/m 0,0 km/h (0 Bft)
07.08.2013 21:00 17,1 C 15,7 C 96 % 1009,4 hPa 0,0 l/m 0 min 0 min 0,0 UV-I 21 W/m 2,6 km/h (1 Bft)
07.08.2013 21:02 17,0 C 15,7 C 96 % 1009,5 hPa 0,0 l/m 0 min 0 min 0,0 UV-I 12 W/m 0,0 km/h (0 Bft)
07.08.2013 21:06 16,8 C 15,7 C 96 % 1009,7 hPa 0,0 l/m 0 min 0 min 0,0 UV-I 9 W/m 2,6 km/h (1 Bft)
07.08.2013 21:08 16,7 C 15,7 C 96 % 1009,9 hPa 0,0 l/m 0 min 0 min 0,0 UV-I 9 W/m 5,1 km/h (1 Bft)
07.08.2013 21:10 16,6 C 15,1 C 96 % 1009,9 hPa 0,0 l/m 0 min 0 min 0,0 UV-I 9 W/m 2,6 km/h (1 Bft)
07.08.2013 21:12 16,6 C 15,1 C 96 % 1009,9 hPa 0,0 l/m 0 min 0 min 0,0 UV-I 7 W/m 0,0 km/h (0 Bft)
07.08.2013 21:14 16,6 C 15,7 C 96 % 1010,0 hPa 0,0 l/m 0 min 0 min 0,0 UV-I 5 W/m 0,0 km/h (0 Bft)
07.08.2013 21:16 16,6 C 15,1 C 96 % 1009,9 hPa 0,0 l/m 0 min 0 min 0,0 UV-I 0 W/m 0,0 km/h (0 Bft)
07.08.2013 21:18 16,5 C 15,7 C 96 % 1010,0 hPa 0,0 l/m 0 min 0 min 0,0 UV-I 0 W/m 0,0 km/h (0 Bft)
07.08.2013 21:20 16,5 C 15,7 C 96 % 1010,1 hPa 0,0 l/m 0 min 0 min 0,0 UV-I 0 W/m 0,0 km/h (0 Bft)
07.08.2013 21:22 16,4 C 15,1 C 96 % 1010,2 hPa 0,0 l/m 0 min 0 min 0,0 UV-I 0 W/m 2,6 km/h (1 Bft)
07.08.2013 21:24 16,4 C 15,1 C 96 % 1010,3 hPa 0,0 l/m 0 min 0 min 0,0 UV-I 0 W/m 7,7 km/h (2 Bft)
07.08.2013 21:26 16,3 C 15,1 C 96 % 1010,3 hPa 0,0 l/m 0 min 0 min 0,0 UV-I 0 W/m 2,6 km/h (1 Bft)
07.08.2013 21:28 16,3 C 15,1 C 96 % 1010,4 hPa 0,0 l/m 0 min 0 min 0,0 UV-I 0 W/m 2,6 km/h (1 Bft)
07.08.2013 21:30 16,2 C 15,1 C 96 % 1010,4 hPa 0,0 l/m 0 min 0 min 0,0 UV-I 0 W/m 0,0 km/h (0 Bft)
07.08.2013 21:32 16,2 C 15,1 C 96 % 1010,4 hPa 0,0 l/m 0 min 0 min 0,0 UV-I 0 W/m 0,0 km/h (0 Bft)
07.08.2013 21:34 16,2 C 15,1 C 96 % 1010,4 hPa 0,0 l/m 0 min 0 min 0,0 UV-I 0 W/m 0,0 km/h (0 Bft)
07.08.2013 21:36 16,2 C 15,1 C 97 % 1010,5 hPa 0,0 l/m 0 min 0 min 0,0 UV-I 0 W/m 0,0 km/h (0 Bft)
07.08.2013 21:38 16,2 C 15,1 C 97 % 1010,5 hPa 0,0 l/m 0 min 0 min 0,0 UV-I 0 W/m 0,0 km/h (0 Bft)
07.08.2013 21:40 16,1 C 15,1 C 97 % 1010,5 hPa 0,0 l/m 0 min 0 min 0,0 UV-I 0 W/m 0,0 km/h (0 Bft)
07.08.2013 21:42 16,1 C 15,1 C 97 % 1010,4 hPa 0,0 l/m 0 min 0 min 0,0 UV-I 0 W/m 0,0 km/h (0 Bft)
07.08.2013 21:44 16,1 C 15,1 C 97 % 1010,5 hPa 0,0 l/m 0 min 0 min 0,0 UV-I 0 W/m 0,0 km/h (0 Bft)
07.08.2013 21:46 16,0 C 15,1 C 97 % 1010,5 hPa 0,0 l/m 0 min 0 min 0,0 UV-I 0 W/m 0,0 km/h (0 Bft)
07.08.2013 21:48 15,9 C 15,1 C 97 % 1010,6 hPa 0,0 l/m 0 min 0 min 0,0 UV-I 0 W/m 0,0 km/h (0 Bft)
07.08.2013 21:50 15,9 C 15,1 C 97 % 1010,6 hPa 0,0 l/m 0 min 0 min 0,0 UV-I 0 W/m 2,6 km/h (1 Bft)
07.08.2013 21:52 15,9 C 15,1 C 97 % 1010,6 hPa 0,0 l/m 0 min 0 min 0,0 UV-I 0 W/m 0,0 km/h (0 Bft)
07.08.2013 21:56 15,9 C 15,1 C 97 % 1010,8 hPa 0,0 l/m 0 min 0 min 0,0 UV-I 0 W/m 0,0 km/h (0 Bft)
07.08.2013 21:58 15,9 C 15,1 C 97 % 1010,8 hPa 0,0 l/m 0 min 0 min 0,0 UV-I 0 W/m 0,0 km/h (0 Bft)
07.08.2013 22:00 15,9 C 15,1 C 97 % 1010,8 hPa 0,0 l/m 0 min 0 min 0,0 UV-I 0 W/m 0,0 km/h (0 Bft)
07.08.2013 22:02 15,9 C 15,1 C 97 % 1010,9 hPa 0,0 l/m 0 min 0 min 0,0 UV-I 0 W/m 0,0 km/h (0 Bft)
07.08.2013 22:06 15,8 C 15,1 C 97 % 1010,9 hPa 0,0 l/m 0 min 0 min 0,0 UV-I 0 W/m 0,0 km/h (0 Bft)
07.08.2013 22:08 15,8 C 15,1 C 97 % 1011,0 hPa 0,0 l/m 0 min 0 min 0,0 UV-I 0 W/m 0,0 km/h (0 Bft)
07.08.2013 22:10 15,7 C 15,1 C 97 % 1011,1 hPa 0,0 l/m 0 min 0 min 0,0 UV-I 0 W/m 0,0 km/h (0 Bft)
07.08.2013 22:12 15,7 C 14,6 C 97 % 1011,1 hPa 0,0 l/m 0 min 0 min 0,0 UV-I 0 W/m 0,0 km/h (0 Bft)
07.08.2013 22:14 15,7 C 15,1 C 97 % 1011,1 hPa 0,0 l/m 0 min 0 min 0,0 UV-I 0 W/m 0,0 km/h (0 Bft)
07.08.2013 22:16 15,7 C 14,6 C 97 % 1011,1 hPa 0,0 l/m 0 min 0 min 0,0 UV-I 0 W/m 0,0 km/h (0 Bft)
07.08.2013 22:18 15,6 C 14,6 C 97 % 1011,1 hPa 0,0 l/m 0 min 0 min 0,0 UV-I 0 W/m 0,0 km/h (0 Bft)
07.08.2013 22:20 15,7 C 14,6 C 97 % 1011,1 hPa 0,0 l/m 0 min 0 min 0,0 UV-I 0 W/m 0,0 km/h (0 Bft)
07.08.2013 22:22 15,6 C 14,6 C 97 % 1011,1 hPa 0,0 l/m 0 min 0 min 0,0 UV-I 0 W/m 0,0 km/h (0 Bft)
07.08.2013 22:24 15,6 C 14,6 C 98 % 1011,0 hPa 0,0 l/m 0 min 0 min 0,0 UV-I 0 W/m 0,0 km/h (0 Bft)
07.08.2013 22:26 15,6 C 14,6 C 98 % 1011,1 hPa 0,0 l/m 0 min 0 min 0,0 UV-I 0 W/m 0,0 km/h (0 Bft)
07.08.2013 22:28 15,6 C 14,6 C 97 % 1011,1 hPa 0,0 l/m 0 min 0 min 0,0 UV-I 0 W/m 0,0 km/h (0 Bft)
07.08.2013 22:30 15,6 C 14,6 C 97 % 1011,2 hPa 0,0 l/m 0 min 0 min 0,0 UV-I 0 W/m 0,0 km/h (0 Bft)
07.08.2013 22:32 15,6 C 14,6 C 97 % 1011,3 hPa 0,0 l/m 0 min 0 min 0,0 UV-I 0 W/m 0,0 km/h (0 Bft)
07.08.2013 22:34 15,5 C 14,6 C 97 % 1011,2 hPa 0,0 l/m 0 min 0 min 0,0 UV-I 0 W/m 0,0 km/h (0 Bft)
07.08.2013 22:36 15,5 C 14,6 C 97 % 1011,3 hPa 0,0 l/m 0 min 0 min 0,0 UV-I 0 W/m 0,0 km/h (0 Bft)
07.08.2013 22:38 15,4 C 14,6 C 97 % 1011,3 hPa 0,0 l/m 0 min 0 min 0,0 UV-I 0 W/m 0,0 km/h (0 Bft)
07.08.2013 22:40 15,4 C 14,6 C 97 % 1011,3 hPa 0,0 l/m 0 min 0 min 0,0 UV-I 0 W/m 0,0 km/h (0 Bft)
07.08.2013 22:42 15,4 C 14,6 C 97 % 1011,4 hPa 0,0 l/m 0 min 0 min 0,0 UV-I 0 W/m 0,0 km/h (0 Bft)
07.08.2013 22:44 15,4 C 14,6 C 97 % 1011,4 hPa 0,0 l/m 0 min 0 min 0,0 UV-I 0 W/m 0,0 km/h (0 Bft)
07.08.2013 22:46 15,4 C 14,6 C 98 % 1011,5 hPa 0,0 l/m 0 min 0 min 0,0 UV-I 0 W/m 0,0 km/h (0 Bft)
07.08.2013 22:48 15,3 C 14,6 C 98 % 1011,6 hPa 0,0 l/m 0 min 0 min 0,0 UV-I 0 W/m 0,0 km/h (0 Bft)
07.08.2013 22:50 15,3 C 14,6 C 98 % 1011,6 hPa 0,0 l/m 0 min 0 min 0,0 UV-I 0 W/m 0,0 km/h (0 Bft)
07.08.2013 22:52 15,3 C 14,6 C 98 % 1011,7 hPa 0,0 l/m 0 min 0 min 0,0 UV-I 0 W/m 0,0 km/h (0 Bft)
07.08.2013 22:54 15,3 C 14,6 C 98 % 1011,6 hPa 0,0 l/m 0 min 0 min 0,0 UV-I 0 W/m 0,0 km/h (0 Bft)
07.08.2013 22:56 15,2 C 14,6 C 97 % 1011,8 hPa 0,0 l/m 0 min 0 min 0,0 UV-I 0 W/m 0,0 km/h (0 Bft)
07.08.2013 22:58 15,2 C 14,6 C 97 % 1011,8 hPa 0,0 l/m 0 min 0 min 0,0 UV-I 0 W/m 0,0 km/h (0 Bft)
07.08.2013 23:00 15,2 C 14,0 C 97 % 1011,8 hPa 0,0 l/m 0 min 0 min 0,0 UV-I 0 W/m 0,0 km/h (0 Bft)
07.08.2013 23:02 15,2 C 14,0 C 97 % 1011,8 hPa 0,0 l/m 0 min 0 min 0,0 UV-I 0 W/m 0,0 km/h (0 Bft)
07.08.2013 23:06 15,1 C 14,0 C 97 % 1011,8 hPa 0,0 l/m 0 min 0 min 0,0 UV-I 0 W/m 0,0 km/h (0 Bft)
07.08.2013 23:08 15,1 C 14,0 C 97 % 1011,7 hPa 0,0 l/m 0 min 0 min 0,0 UV-I 0 W/m 0,0 km/h (0 Bft)
07.08.2013 23:10 15,1 C 14,0 C 98 % 1011,8 hPa 0,0 l/m 0 min 0 min 0,0 UV-I 0 W/m 0,0 km/h (0 Bft)
07.08.2013 23:12 15,1 C 14,6 C 98 % 1011,8 hPa 0,0 l/m 0 min 0 min 0,0 UV-I 0 W/m 0,0 km/h (0 Bft)
07.08.2013 23:14 15,1 C 14,6 C 98 % 1011,7 hPa 0,0 l/m 0 min 0 min 0,0 UV-I 0 W/m 0,0 km/h (0 Bft)
07.08.2013 23:16 15,1 C 14,6 C 98 % 1011,7 hPa 0,0 l/m 0 min 0 min 0,0 UV-I 0 W/m 0,0 km/h (0 Bft)
07.08.2013 23:18 15,1 C 14,6 C 98 % 1011,7 hPa 0,0 l/m 0 min 0 min 0,0 UV-I 0 W/m 0,0 km/h (0 Bft)
07.08.2013 23:20 15,1 C 14,0 C 98 % 1011,6 hPa 0,0 l/m 0 min 0 min 0,0 UV-I 0 W/m 0,0 km/h (0 Bft)
07.08.2013 23:22 15,1 C 14,0 C 98 % 1011,6 hPa 0,0 l/m 0 min 0 min 0,0 UV-I 0 W/m 0,0 km/h (0 Bft)
07.08.2013 23:24 15,1 C 14,0 C 98 % 1011,7 hPa 0,0 l/m 0 min 0 min 0,0 UV-I 0 W/m 0,0 km/h (0 Bft)
07.08.2013 23:26 15,0 C 14,0 C 98 % 1011,7 hPa 0,0 l/m 0 min 0 min 0,0 UV-I 0 W/m 0,0 km/h (0 Bft)
07.08.2013 23:28 15,0 C 14,0 C 98 % 1011,7 hPa 0,0 l/m 0 min 0 min 0,0 UV-I 0 W/m 0,0 km/h (0 Bft)
07.08.2013 23:30 15,1 C 14,0 C 98 % 1011,8 hPa 0,0 l/m 0 min 0 min 0,0 UV-I 0 W/m 0,0 km/h (0 Bft)
07.08.2013 23:32 15,0 C 14,6 C 98 % 1011,9 hPa 0,0 l/m 0 min 0 min 0,0 UV-I 0 W/m 0,0 km/h (0 Bft)
07.08.2013 23:34 15,0 C 14,0 C 98 % 1011,9 hPa 0,0 l/m 0 min 0 min 0,0 UV-I 0 W/m 0,0 km/h (0 Bft)
07.08.2013 23:36 15,1 C 14,0 C 98 % 1012,0 hPa 0,0 l/m 0 min 0 min 0,0 UV-I 0 W/m 0,0 km/h (0 Bft)
07.08.2013 23:38 15,0 C 14,0 C 98 % 1012,0 hPa 0,0 l/m 0 min 0 min 0,0 UV-I 0 W/m 0,0 km/h (0 Bft)
07.08.2013 23:40 14,9 C 14,0 C 98 % 1012,0 hPa 0,0 l/m 0 min 0 min 0,0 UV-I 0 W/m 0,0 km/h (0 Bft)
07.08.2013 23:42 14,9 C 14,0 C 98 % 1012,0 hPa 0,0 l/m 0 min 0 min 0,0 UV-I 0 W/m 0,0 km/h (0 Bft)
07.08.2013 23:44 15,0 C 14,0 C 98 % 1012,1 hPa 0,0 l/m 0 min 0 min 0,0 UV-I 0 W/m 0,0 km/h (0 Bft)
07.08.2013 23:46 15,1 C 14,0 C 98 % 1012,1 hPa 0,0 l/m 0 min 0 min 0,0 UV-I 0 W/m 0,0 km/h (0 Bft)
07.08.2013 23:48 15,1 C 14,6 C 98 % 1012,1 hPa 0,0 l/m 0 min 0 min 0,0 UV-I 0 W/m 0,0 km/h (0 Bft)
07.08.2013 23:50 15,0 C 14,6 C 98 % 1012,2 hPa 0,0 l/m 0 min 0 min 0,0 UV-I 0 W/m 0,0 km/h (0 Bft)
07.08.2013 23:52 15,1 C 14,6 C 98 % 1012,2 hPa 0,0 l/m 0 min 0 min 0,0 UV-I 0 W/m 0,0 km/h (0 Bft)
07.08.2013 23:54 15,0 C 14,0 C 98 % 1012,2 hPa 0,0 l/m 0 min 0 min 0,0 UV-I 0 W/m 0,0 km/h (0 Bft)
07.08.2013 23:56 15,1 C 14,6 C 98 % 1012,3 hPa 0,0 l/m 0 min 0 min 0,0 UV-I 0 W/m 0,0 km/h (0 Bft)
07.08.2013 23:58 15,0 C 14,6 C 98 % 1012,3 hPa 0,0 l/m 0 min 0 min 0,0 UV-I 0 W/m 0,0 km/h (0 Bft)
_ Min-Zeit 05:56 05:54 17:02 15:00 - - - - - 00:00
Minimum _ 14,2 C 12,9 C 80 % 1007,8 hPa - - - - - 0,0 km/h (0 Bft)
_ Max-Zeit 16:36 16:36 13:08 00:18 09:32 06:28 08:06 16:30 16:30 16:58
Maximum _ 23,2 C 22,9 C 99 % 1014,9 hPa 0,2 l/m 2 min 2 min 3,2 UV-I 810 W/m 38,6 km/h
S-SO (5 Bft)
Durchschnitt _ 17,4 C 16,4 C 93 % 1010,7 hPa #4,0 l/m #2:12 h #5:02 h 1,4 UV-I 134 W/m 2,1 km/h (1 Bft)
© 2013 W. Hausmann